     2.10           OBSERVATION DATA    G (GPS)             RINEX VERSION / TYPE
teqc 2002Mar14 Lou Estey 20020315 16:12:47UTC               PGM / RUN BY / DATE
Solaris 2.7|Ultra 2|cc SC5.0|=+-|*Sparc                     COMMENT
-Unknown-                                                   MARKER NAME
-Unknown- -Unknown-                                         OBSERVER / AGENCY
-Unknown- CMC ALLSTAR OEM -Unknown-                         REC # / TYPE / VERS
-Unknown- -Unknown-                                         ANT # / TYPE
        0.0000        0.0000        0.0000                  APPROX POSITION XYZ
        0.0000        0.0000        0.0000                  ANTENNA: DELTA H/E/N
     1     0                                                WAVELENGTH FACT L1/2
     3    L1    C1    S1                                    # / TYPES OF OBSERV
SNR is mapped to RINEX snr flag value [1-9]                 COMMENT
L1: 0 dBHz = 1; 32 dBHz = 5; 64 dBHz = 9                    COMMENT
  1996     2     5    16    55   48.2000000     GPS         TIME OF FIRST OBS
                                                            END OF HEADER
 96  2  5 16 55 48.2000000  0  7G 1G 6G29G20G25G22G14
    493111.185 7  22996951.158          48.000
    677862.501 7  23398373.222          47.250
    119408.352 7  23268698.600          47.000
    599149.973 6  24473092.146          43.750
   1044168.771 7  20561629.672          50.500
    286960.880 7  20893378.563          48.000
    809843.634 7  21975094.396          49.250
 96  2  5 16 55 48.3000000  0  7G 1G 6G29G20G25G22G14
    493323.074 7  22997021.409          48.000
    677699.285 7  23398372.357          47.250
    118995.559 7  23268650.228          47.000
    599407.167 6  24473171.126          43.750
   1044164.335 7  20561658.856          50.500
    286625.378 7  20893344.500          48.000
    809739.460 7  21975104.692          49.250
 96  2  5 16 55 48.4000000  0  7G 1G 6G29G20G25G22G14
    493534.958 7  22997091.812          48.000
    677536.072 7  23398371.357          47.250
    118582.767 7  23268601.579          47.000
    599664.373 6  24473250.258          43.750
   1044159.905 7  20561688.192          50.500
    286289.894 7  20893310.876          48.000
    809635.313 7  21975114.853          49.250
 96  2  5 16 55 48.5000000  0  7G 1G 6G29G20G25G22G14
    493746.876 7  22997162.358          48.000
    677372.919 7  23398370.357          47.250
    118170.020 7  23268553.073          47.000
    599921.595 6  24473329.103          43.750
   1044155.503 7  20561717.384          50.500
    285954.449 7  20893277.108          48.000
    809531.206 7  21975125.014          49.250
 96  2  5 16 55 48.6000000  0  7G 1G 6G29G20G25G22G14
    493958.827 7  22997232.761          48.000
    677209.791 7  23398369.214          47.250
    117757.299 7  23268504.709          47.000
    600178.867 6  24473408.234          43.750
   1044151.158 7  20561746.577          50.500
    285619.044 7  20893243.197          48.000
    809427.132 7  21975135.319          49.250
 96  2  5 16 55 48.7000000  0  7G 1G 6G29G20G25G22G14
    494170.754 7  22997303.021          48.000
    677046.631 7  23398368.214          47.250
    117344.547 7  23268456.203          47.000
    600436.092 6  24473487.223          43.750
   1044146.765 7  20561775.912          50.500
    285283.601 7  20893209.429          48.000
    809323.017 7  21975145.623          49.250
 96  2  5 16 55 48.8000000  0  7G 1G 6G29G20G25G22G14
    494382.673 7  22997373.415          48.000
    676883.475 7  23398367.205          47.250
    116931.797 7  23268407.831          47.000
    600693.316 6  24473566.346          43.750
   1044142.366 7  20561805.239          50.500
    284948.156 7  20893175.795          48.000
    809218.926 7  21975155.919          49.250
 96  2  5 16 55 48.9000000  0  7G 1G 6G29G20G25G22G14
    494594.573 7  22997443.818          48.000
    676720.301 7  23398366.205          47.250
    116518.998 7  23268359.181          47.000
    600950.521 6  24473645.191          43.750
   1044137.950 7  20561834.289          50.500
    284612.701 7  20893142.027          48.000
    809114.801 7  21975166.223          49.250
 96  2  5 16 55 49.0000000  0  7G 1G 6G29G20G25G22G14
    494806.974 7  22997407.839          48.000
    676557.621 7  23398258.967          47.250
    116106.715 7  23268204.436          47.000
    601208.228 6  24473617.941          43.750
   1044134.050 7  20561757.242          50.500
    284277.746 7  20893001.877          48.000
    809011.181 7  21975070.145          49.250
 96  2  5 16 55 49.1000000  0  7G 1G 6G29G20G25G22G14
    495018.852 7  22997478.385          48.000
    676394.437 7  23398257.967          47.500
    115693.920 7  23268155.930          47.250
    601465.404 6  24473697.073          43.750
   1044129.616 7  20561786.435          50.500
    283942.260 7  20892968.109          48.000
    808907.055 7  21975080.450          49.500
 96  2  5 16 55 49.2000000  0  7G 1G 6G29G20G25G22G14
    495230.725 7  22997548.788          48.000
    676231.243 7  23398257.110          47.500
    115281.110 7  23268107.566          47.250
    601722.583 6  24473775.918          43.750
   1044125.186 7  20561815.627          50.500
    283606.766 7  20892934.484          48.000
    808802.925 7  21975090.611          49.500
 96  2  5 16 55 49.3000000  0  7G 1G 6G29G20G25G22G14
    495442.610 7  22997619.182          48.000
    676068.071 7  23398256.101          47.500
    114868.309 7  23268058.908          47.250
    601979.770 6  24473854.898          43.750
   1044120.765 7  20561844.811          50.500
    283271.324 7  20892900.565          48.000
    808698.807 7  21975100.764          49.500
 96  2  5 16 55 49.4000000  0  7G 1G 6G29G20G25G22G14
    495654.468 7  22997689.442          48.000
    675904.881 7  23398255.102          47.500
    114455.488 7  23268010.402          47.250
    602236.925 6  24473934.029          43.750
   1044116.314 7  20561874.147          50.500
    282935.833 7  20892866.797          48.000
    808594.660 7  21975111.211          49.500
 96  2  5 16 55 49.5000000  0  7G 1G 6G29G20G25G22G14
    495866.349 7  22997759.845          48.000
    675741.710 7  23398254.102          47.500
    114042.691 7  23267962.038          47.250
    602494.114 6  24474012.875          43.750
   1044111.885 7  20561903.339          50.500
    282600.373 7  20892833.029          48.000
    808490.563 7  21975121.372          49.500
 96  2  5 16 55 49.6000000  0  7G 1G 6G29G20G25G22G14
    496078.238 7  22997830.105          48.000
    675578.543 7  23398253.102          47.500
    113629.888 7  23267913.389          47.250
    602751.296 6  24474092.006          43.750
   1044107.464 7  20561932.532          50.500
    282264.913 7  20892799.404          48.000
    808386.456 7  21975131.677          49.500
 96  2  5 16 55 49.7000000  0  7G 1G 6G29G20G25G22G14
    496290.108 7  22997900.508          48.000
    675415.363 7  23398252.102          47.500
    113217.077 7  23267864.882          47.250
    603008.459 6  24474170.995          43.750
   1044103.044 7  20561961.724          50.500
    281929.446 7  20892765.636          48.000
    808282.340 7  21975141.981          49.500
 96  2  5 16 55 49.8000000  0  7G 1G 6G29G20G25G22G14
    496502.002 7  22997970.902          48.000
    675252.228 7  23398251.236          47.500
    112804.285 7  23267816.510          47.250
    603265.656 6  24474249.831          43.750
   1044098.635 7  20561991.051          50.500
    281594.014 7  20892731.716          48.000
    808178.258 7  21975152.134          49.500
 96  2  5 16 55 49.9000000  0  7G 1G 6G29G20G25G22G14
    496713.867 7  22998041.162          48.000
    675089.047 7  23398250.236          47.500
    112391.464 7  23267768.004          47.250
    603522.802 6  24474328.963          43.750
   1044094.197 7  20562020.244          50.500
    281258.546 7  20892697.948          48.000
    808074.149 7  21975162.295          49.500
 96  2  5 16 55 50.0000000  0  7G 1G 6G29G20G25G22G14
    496926.241 7  22998005.408          48.000
    674926.390 7  23398142.937          47.500
    111979.165 7  23267613.055          47.250
    603780.478 6  24474301.652          43.750
   1044090.283 7  20561943.136          50.500
    280923.598 7  20892557.880          48.000
    807970.553 7  21975066.299          49.500
 96  2  5 16 55 50.1000000  0  7G 1G 6G29G20G25G22G14
    497138.093 7  22998075.811          47.750
    674763.211 7  23398141.937          47.250
    111566.339 7  23267564.548          47.250
    604037.617 6  24474380.497          43.500
   1044085.829 7  20561972.329          50.500
    280588.125 7  20892524.256          48.000
    807866.439 7  21975076.604          49.250
 96  2  5 16 55 50.2000000  0  7G 1G 6G29G20G25G22G14
    497349.931 7  22998146.071          47.750
    674600.038 7  23398140.937          47.250
    111153.485 7  23267516.185          47.250
    604294.732 6  24474459.629          43.500
   1044081.377 7  20562001.521          50.500
    280252.647 7  20892490.345          48.000
    807762.326 7  21975086.765          49.250
 96  2  5 16 55 50.3000000  0  7G 1G 6G29G20G25G22G14
    497561.768 7  22998216.465          47.750
    674436.842 7  23398139.928          47.250
    110740.648 7  23267467.527          47.250
    604551.885 6  24474538.465          43.500
   1044076.929 7  20562030.705          50.500
    279917.155 7  20892456.568          48.000
    807658.206 7  21975097.061          49.250
 96  2  5 16 55 50.4000000  0  7G 1G 6G29G20G25G22G14
    497773.603 7  22998286.868          47.750
    674273.674 7  23398138.928          47.250
    110327.804 7  23267419.020          47.250
    604808.999 6  24474617.597          43.500
   1044072.476 7  20562059.898          50.500
    279581.691 7  20892422.800          48.000
    807554.089 7  21975107.365          49.250
 96  2  5 16 55 50.5000000  0  7G 1G 6G29G20G25G22G14
    497985.469 7  22998357.271          47.750
    674110.517 7  23398138.072          47.250
    109914.978 7  23267370.657          47.250
    605066.149 6  24474696.585          43.500
   1044068.042 7  20562089.233          50.500
    279246.238 7  20892389.175          48.000
    807450.004 7  21975117.526          49.250
 96  2  5 16 55 50.6000000  0  7G 1G 6G29G20G25G22G14
    498197.322 7  22998427.531          47.750
    673947.360 7  23398137.072          47.250
    109502.151 7  23267322.007          47.250
    605323.287 6  24474775.431          43.500
   1044063.611 7  20562118.426          50.500
    278910.790 7  20892355.407          48.000
    807345.929 7  21975127.831          49.250
 96  2  5 16 55 50.7000000  0  7G 1G 6G29G20G25G22G14
    498409.225 7  22998497.934          47.750
    673784.262 7  23398136.072          47.250
    109089.364 7  23267273.501          47.250
    605580.489 6  24474854.562          43.500
   1044059.222 7  20562147.618          50.500
    278575.386 7  20892321.496          48.000
    807241.886 7  21975138.135          49.250
 96  2  5 16 55 50.8000000  0  7G 1G 6G29G20G25G22G14
    498621.076 7  22998568.185          47.750
    673621.116 7  23398134.920          47.250
    108676.536 7  23267225.129          47.250
    605837.628 6  24474933.542          43.500
   1044054.783 7  20562176.802          50.500
    278239.938 7  20892287.719          48.000
    807137.809 7  21975148.431          49.250
 96  2  5 16 55 50.9000000  0  7G 1G 6G29G20G25G22G14
    498832.923 7  22998638.731          47.750
    673457.964 7  23398133.920          47.250
    108263.690 7  23267176.622          47.250
    606094.768 6  24475012.387          43.500
   1044050.351 7  20562206.137          50.500
    277904.483 7  20892254.095          48.000
    807033.736 7  21975158.592          49.250
 96  2  5 16 55 51.0000000  0  7G 1G 6G29G20G25G22G14
    499045.263 7  22998603.140          47.750
    673295.320 7  23398026.926          47.250
    107851.345 7  23267021.978          47.250
    606352.392 6  24474985.525          43.500
   1044046.408 7  20562129.192          50.500
    277569.534 7  20892114.332          48.000
    806930.150 7  21975062.759          49.250
 96  2  5 16 55 51.1000000  0  7G 1G 6G29G20G25G22G14
    499257.098 7  22998673.543          47.750
    673132.145 7  23398025.926          47.500
    107438.494 7  23266973.472          47.250
    606609.495 6  24475064.370          43.500
   1044041.946 7  20562158.528          50.500
    277234.072 7  20892080.564          48.000
    806826.053 7  21975073.206          49.250
 96  2  5 16 55 51.2000000  0  7G 1G 6G29G20G25G22G14
    499468.921 7  22998743.803          47.750
    672968.987 7  23398024.926          47.500
    107025.618 7  23266925.109          47.250
    606866.605 6  24475143.358          43.500
   1044037.488 7  20562187.721          50.500
    276898.602 7  20892046.653          48.000
    806721.962 7  21975083.368          49.250
 96  2  5 16 55 51.3000000  0  7G 1G 6G29G20G25G22G14
    499680.729 7  22998814.197          47.750
    672805.815 7  23398024.060          47.500
    106612.760 7  23266876.450          47.250
    607123.702 6  24475222.481          43.500
   1044033.029 7  20562216.904          50.500
    276563.140 7  20892012.876          48.000
    806617.864 7  21975093.520          49.250
 96  2  5 16 55 51.4000000  0  7G 1G 6G29G20G25G22G14
    499892.553 7  22998884.743          47.750
    672642.660 7  23398023.061          47.500
    106199.883 7  23266827.944          47.250
    607380.813 6  24475301.327          43.500
   1044028.563 7  20562246.097          50.500
    276227.657 7  20891979.252          48.000
    806513.784 7  21975103.824          49.250
 96  2  5 16 55 51.5000000  0  7G 1G 6G29G20G25G22G14
    500104.387 7  22998955.146          47.750
    672479.539 7  23398022.061          47.500
    105787.049 7  23266779.581          47.250
    607637.938 6  24475380.315          43.500
   1044024.146 7  20562275.289          50.500
    275892.241 7  20891945.484          48.000
    806409.726 7  21975114.129          49.250
 96  2  5 16 55 51.6000000  0  7G 1G 6G29G20G25G22G14
    500316.231 7  22999025.406          47.750
    672316.407 7  23398021.061          47.500
    105374.202 7  23266730.931          47.250
    607895.046 6  24475459.161          43.500
   1044019.702 7  20562304.482          50.500
    275556.806 7  20891911.716          48.000
    806305.667 7  21975124.290          49.250
 96  2  5 16 55 51.7000000  0  7G 1G 6G29G20G25G22G14
    500528.064 7  22999095.809          47.750
    672153.269 7  23398020.061          47.500
    104961.337 7  23266682.425          47.250
    608152.167 6  24475538.292          43.500
   1044015.259 7  20562333.674          50.500
    275221.360 7  20891877.805          48.000
    806201.611 7  21975134.594          49.250
 96  2  5 16 55 51.8000000  0  7G 1G 6G29G20G25G22G14
    500739.886 7  22999166.203          47.750
    671990.137 7  23398019.052          47.500
    104548.482 7  23266634.053          47.250
    608409.241 6  24475617.129          43.500
   1044010.810 7  20562363.001          50.500
    274885.917 7  20891844.171          48.000
    806097.543 7  21975144.890          49.250
 96  2  5 16 55 51.9000000  0  7G 1G 6G29G20G25G22G14
    500951.721 7  22999236.606          47.750
    671827.012 7  23398018.052          47.500
    104135.618 7  23266585.546          47.250
    608666.372 6  24475696.260          43.500
   1044006.360 7  20562392.194          50.500
    274550.483 7  20891810.403          48.000
    805993.506 7  21975155.051          49.250
 96  2  5 16 55 52.0000000  0  7G 1G 6G29G20G25G22G14
    501164.041 7  22999201.154          47.750
    671664.379 7  23397911.341          47.500
    103723.255 7  23266431.042          47.250
    608923.966 6  24475669.108          43.500
   1044002.414 7  20562315.388          50.500
    274215.536 7  20891670.923          48.000
    805889.943 7  21975059.501          49.250
 96  2  5 16 55 52.1000000  0  7G 1G 6G29G20G25G22G14
    501375.879 7  22999271.557          48.000
    671501.255 7  23397910.341          47.250
    103310.397 7  23266382.536          47.250
    609181.081 6  24475748.239          43.500
   1043997.981 7  20562344.581          50.250
    273880.115 7  20891636.869          48.000
    805785.909 7  21975069.662          49.250
 96  2  5 16 55 52.2000000  0  7G 1G 6G29G20G25G22G14
    501587.706 7  22999341.960          48.000
    671338.143 7  23397909.341          47.250
    102897.544 7  23266334.172          47.250
    609438.199 6  24475827.371          43.500
   1043993.553 7  20562373.916          50.250
    273544.693 7  20891603.244          48.000
    805681.876 7  21975080.110          49.250
 96  2  5 16 55 52.3000000  0  7G 1G 6G29G20G25G22G14
    501799.525 7  22999412.354          48.000
    671175.022 7  23397908.332          47.250
    102484.653 7  23266285.514          47.250
    609695.266 6  24475906.208          43.500
   1043989.091 7  20562403.100          50.250
    273209.236 7  20891569.468          48.000
    805577.821 7  21975090.262          49.250
 96  2  5 16 55 52.4000000  0  7G 1G 6G29G20G25G22G14
    502011.323 7  22999482.614          48.000
    671011.882 7  23397907.332          47.250
    102071.773 7  23266237.008          47.250
    609952.343 6  24475985.196          43.500
   1043984.613 7  20562432.293          50.250
    272873.787 7  20891535.843          48.000
    805473.763 7  21975100.566          49.250
 96  2  5 16 55 52.5000000  0  7G 1G 6G29G20G25G22G14
    502223.151 7  22999553.017          48.000
    670848.768 7  23397906.332          47.250
    101658.903 7  23266188.644          47.250
    610209.428 6  24476064.042          43.500
   1043980.176 7  20562461.628          50.250
    272538.360 7  20891501.789          48.000
    805369.731 7  21975110.728          49.250
 96  2  5 16 55 52.6000000  0  7G 1G 6G29G20G25G22G14
    502434.979 7  22999623.277          48.000
    670685.663 7  23397905.476          47.250
    101246.039 7  23266140.138          47.250
    610466.541 6  24476143.173          43.500
   1043975.746 7  20562490.678          50.250
    272202.944 7  20891468.164          48.000
    805265.707 7  21975121.175          49.250
 96  2  5 16 55 52.7000000  0  7G 1G 6G29G20G25G22G14
    502646.800 7  22999693.823          48.000
    670522.559 7  23397904.476          47.250
    100833.166 7  23266091.488          47.250
    610723.625 6  24476222.162          43.500
   1043971.298 7  20562519.870          50.250
    271867.528 7  20891434.396          48.000
    805161.688 7  21975131.336          49.250
 96  2  5 16 55 52.8000000  0  7G 1G 6G29G20G25G22G14
    502858.609 7  22999764.217          48.000
    670359.449 7  23397903.467          47.250
    100420.290 7  23266042.973          47.250
    610980.707 6  24476300.998          43.500
   1043966.863 7  20562549.054          50.250
    271532.106 7  20891400.762          48.000
    805057.653 7  21975141.632          49.250
 96  2  5 16 55 52.9000000  0  7G 1G 6G29G20G25G22G14
    503070.448 7  22999834.620          48.000
    670196.365 7  23397902.467          47.250
    100007.445 7  23265994.610          47.250
    611237.824 6  24476380.130          43.500
   1043962.440 7  20562578.389          50.250
    271196.703 7  20891366.851          48.000
    804953.655 7  21975151.936          49.250
 96  2  5 16 55 53.0000000  0  7G 1G 6G29G20G25G22G14
    503282.767 7  22999799.034          48.000
    670033.770 7  23397795.621          47.250
     99595.055 7  23265840.114          47.250
    611495.395 6  24476353.272          43.500
   1043958.498 7  20562501.593          50.250
    270861.781 7  20891227.094          48.000
    804850.142 7  21975056.395          49.250
 96  2  5 16 55 53.1000000  0  7G 1G 6G29G20G25G22G14
    503494.554 7  22999869.437          48.250
    669870.645 7  23397794.764          47.250
     99182.147 7  23265791.608          47.000
    611752.443 6  24476432.118          43.500
   1043954.035 7  20562530.785          50.250
    270526.348 7  20891193.469          48.000
    804746.092 7  21975066.556          49.250
 96  2  5 16 55 53.2000000  0  7G 1G 6G29G20G25G22G14
    503706.341 7  22999939.697          48.250
    669707.520 7  23397793.764          47.250
     98769.249 7  23265743.244          47.000
    612009.505 6  24476511.249          43.500
   1043949.560 7  20562560.121          50.250
    270190.896 7  20891159.701          48.000
    804642.061 7  21975076.860          49.250
 96  2  5 16 55 53.3000000  0  7G 1G 6G29G20G25G22G14
    503918.132 7  23000010.377          48.250
    669544.413 7  23397792.756          47.250
     98356.351 7  23265694.586          47.000
    612266.563 6  24476590.086          43.500
   1043945.104 7  20562589.305          50.250
    269855.471 7  20891125.925          48.000
    804538.029 7  21975087.013          49.250
 96  2  5 16 55 53.4000000  0  7G 1G 6G29G20G25G22G14
    504129.921 7  23000080.637          48.250
    669381.308 7  23397791.613          47.250
     97943.447 7  23265646.080          47.000
    612523.642 6  24476669.074          43.500
   1043940.647 7  20562618.497          50.250
    269520.044 7  20891092.014          48.000
    804434.013 7  21975097.460          49.250
 96  2  5 16 55 53.5000000  0  7G 1G 6G29G20G25G22G14
    504341.729 7  23000151.040          48.250
    669218.218 7  23397790.756          47.250
     97530.553 7  23265597.573          47.000
    612780.683 6  24476747.920          43.500
   1043936.196 7  20562647.690          50.250
    269184.633 7  20891058.389          48.000
    804330.010 7  21975107.622          49.250
 96  2  5 16 55 53.6000000  0  7G 1G 6G29G20G25G22G14
    504553.588 7  23000221.300          48.250
    669055.182 7  23397789.756          47.250
     97117.710 7  23265549.067          47.000
    613037.795 6  24476827.051          43.500
   1043931.808 7  20562677.025          50.250
    268849.258 7  20891024.621          48.000
    804226.057 7  21975117.926          49.250
 96  2  5 16 55 53.7000000  0  7G 1G 6G29G20G25G22G14
    504765.405 7  23000291.703          48.250
    668892.100 7  23397788.899          47.250
     96704.835 7  23265500.561          47.000
    613294.888 6  24476906.183          43.500
   1043927.373 7  20562706.074          50.250
    268513.876 7  20890990.996          48.000
    804122.065 7  21975128.087          49.250
 96  2  5 16 55 53.8000000  0  7G 1G 6G29G20G25G22G14
    504977.202 7  23000362.097          48.250
    668729.014 7  23397787.891          47.250
     96291.935 7  23265452.045          47.000
    613551.933 6  24476985.020          43.500
   1043922.929 7  20562735.401          50.250
    268178.468 7  20890956.933          48.000
    804018.068 7  21975138.526          49.250
 96  2  5 16 55 53.9000000  0  7G 1G 6G29G20G25G22G14
    505188.997 7  23000432.500          48.250
    668565.921 7  23397786.891          47.250
     95879.014 7  23265403.682          47.000
    613808.970 6  24477064.008          43.500
   1043918.463 7  20562764.594          50.250
    267843.037 7  20890923.308          48.000
    803914.067 7  21975148.687          49.250
 96  2  5 16 55 53.9999999  0  7G 1G 6G29G20G25G22G14
    505401.275 7  23000396.731          48.250
    668403.325 7  23397679.718          47.250
     95466.607 7  23265249.003          47.000
    614066.521 6  24477036.824          43.500
   1043914.511 7  20562687.757          50.250
    267508.117 7  20890783.511          48.000
    803810.564 7  21975052.819          49.250
 96  2  5 16 55 54.0999999  0  7G 1G 6G29G20G25G22G14
    505613.050 7  23000467.277          48.500
    668240.226 7  23397679.005          47.250
     95053.684 7  23265200.497          47.250
    614323.555 6  24477115.956          43.500
   1043910.038 7  20562716.949          50.250
    267172.680 7  20890749.743          48.000
    803706.557 7  21975063.123          49.250
 96  2  5 16 55 54.1999999  0  7G 1G 6G29G20G25G22G14
    505824.807 7  23000537.680          48.500
    668077.104 7  23397678.005          47.250
     94640.741 7  23265151.990          47.250
    614580.563 6  24477194.944          43.500
   1043905.550 7  20562746.142          50.250
    266837.242 7  20890715.975          48.000
    803602.539 7  21975073.571          49.250
 96  2  5 16 55 54.2999999  0  7G 1G 6G29G20G25G22G14
    506036.563 7  23000608.074          48.500
    667914.021 7  23397676.996          47.250
     94227.817 7  23265103.475          47.250
    614837.585 6  24477273.781          43.500
   1043901.077 7  20562775.326          50.250
    266501.814 7  20890682.198          48.000
    803498.522 7  21975083.723          49.250
 96  2  5 16 55 54.3999999  0  7G 1G 6G29G20G25G22G14
    506248.329 7  23000678.334          48.500
    667750.915 7  23397675.996          47.250
     93814.879 7  23265054.969          47.250
    615094.610 6  24477352.912          43.500
   1043896.598 7  20562804.661          50.250
    266166.393 7  20890648.430          48.000
    803394.524 7  21975094.028          49.250
 96  2  5 16 55 54.4999999  0  7G 1G 6G29G20G25G22G14
    506460.115 7  23000748.737          48.500
    667587.852 7  23397674.996          47.250
     93401.960 7  23265006.462          47.250
    615351.634 6  24477431.758          43.500
   1043892.148 7  20562833.854          50.250
    265830.978 7  20890614.662          48.000
    803290.533 7  21975104.332          49.250
 96  2  5 16 55 54.5999999  0  7G 1G 6G29G20G25G22G14
    506671.891 7  23000818.997          48.500
    667424.775 7  23397673.853          47.250
     92989.032 7  23264957.813          47.250
    615608.663 6  24477510.746          43.500
   1043887.684 7  20562863.046          50.250
    265495.579 7  20890580.895          48.000
    803186.551 7  21975114.493          49.250
 96  2  5 16 55 54.6999999  0  7G 1G 6G29G20G25G22G14
    506883.657 7  23000889.400          48.500
    667261.689 7  23397673.140          47.250
     92576.102 7  23264909.450          47.250
    615865.689 6  24477589.592          43.500
   1043883.218 7  20562892.239          50.250
    265160.160 7  20890546.984          48.000
    803082.552 7  21975124.798          49.250
 96  2  5 16 55 54.7999999  0  7G 1G 6G29G20G25G22G14
    507095.427 7  23000959.794          48.500
    667098.596 7  23397672.131          47.250
     92163.171 7  23264860.934          47.250
    616122.685 6  24477668.714          43.500
   1043878.741 7  20562921.423          50.250
    264824.745 7  20890513.350          48.000
    802978.582 7  21975135.093          49.250
 96  2  5 16 55 54.8999999  0  7G 1G 6G29G20G25G22G14
    507307.174 7  23001030.054          48.500
    666935.519 7  23397671.131          47.250
     91750.230 7  23264812.285          47.250
    616379.709 6  24477747.560          43.500
   1043874.271 7  20562950.615          50.250
    264489.326 7  20890479.582          48.000
    802874.583 7  21975145.398          49.250
 96  2  5 16 55 54.9999999  0  7G 1G 6G29G20G25G22G14
    507519.437 7  23000994.881          48.500
    666772.940 7  23397564.413          47.250
     91337.786 7  23264658.346          47.250
    616637.220 6  24477720.973          43.500
   1043870.297 7  20562874.375          50.250
    264154.403 7  20890340.381          48.000
    802771.111 7  21975049.983          49.250
 96  2  5 16 55 55.0999999  0  7G 1G 6G29G20G25G22G14
    507731.205 7  23001065.427          48.250
    666609.865 7  23397563.699          47.250
     90924.851 7  23264609.840          47.500
    616894.249 6  24477799.818          43.500
   1043865.843 7  20562903.568          50.250
    263819.008 7  20890306.470          48.000
    802667.136 7  21975060.288          49.250
 96  2  5 16 55 55.1999999  0  7G 1G 6G29G20G25G22G14
    507942.923 7  23001135.687          48.250
    666446.752 7  23397562.699          47.250
     90511.858 7  23264561.333          47.500
    617151.196 6  24477878.950          43.500
   1043861.319 7  20562932.760          50.250
    263483.555 7  20890272.846          48.000
    802563.115 7  21975070.592          49.250
 96  2  5 16 55 55.2999999  0  7G 1G 6G29G20G25G22G14
    508154.629 7  23001206.081          48.250
    666283.642 7  23397561.690          47.250
     90098.869 7  23264512.675          47.500
    617408.135 6  24477957.786          43.500
   1043856.804 7  20562961.944          50.250
    263148.091 7  20890238.926          48.000
    802459.090 7  21975080.888          49.250
 96  2  5 16 55 55.3999999  0  7G 1G 6G29G20G25G22G14
    508366.339 7  23001276.484          48.250
    666120.521 7  23397560.690          47.250
     89685.856 7  23264464.312          47.500
    617665.090 6  24478036.775          43.500
   1043852.269 7  20562990.993          50.250
    262812.634 7  20890205.158          48.000
    802355.077 7  21975091.192          49.250
 96  2  5 16 55 55.4999999  0  7G 1G 6G29G20G25G22G14
    508578.063 7  23001346.744          48.250
    665957.415 7  23397559.690          47.250
     89272.884 7  23264415.662          47.500
    617922.057 6  24478115.620          43.500
   1043847.772 7  20563020.329          50.250
    262477.202 7  20890171.533          48.000
    802251.071 7  21975101.353          49.250
 96  2  5 16 55 55.5999999  0  7G 1G 6G29G20G25G22G14
    508789.804 7  23001417.147          48.250
    665794.331 7  23397558.548          47.250
     88859.917 7  23264367.156          47.500
    618179.033 6  24478194.752          43.500
   1043843.273 7  20563049.521          50.250
    262141.777 7  20890137.765          48.000
    802147.101 7  21975111.658          49.250
 96  2  5 16 55 55.6999999  0  7G 1G 6G29G20G25G22G14
    509001.527 7  23001487.550          48.250
    665631.258 7  23397557.548          47.250
     88446.934 7  23264318.792          47.500
    618435.989 6  24478273.597          43.500
   1043838.775 7  20563078.857          50.250
    261806.351 7  20890104.140          48.000
    802043.100 7  21975121.962          49.250
 96  2  5 16 55 55.7999999  0  7G 1G 6G29G20G25G22G14
    509213.272 7  23001557.801          48.250
    665468.197 7  23397556.825          47.250
     88033.980 7  23264270.134          47.500
    618692.986 6  24478352.720          43.500
   1043834.309 7  20563108.041          50.250
    261470.953 7  20890070.220          48.000
    801939.157 7  21975132.258          49.250
 96  2  5 16 55 55.8999999  0  7G 1G 6G29G20G25G22G14
    509424.978 7  23001628.204          48.250
    665305.100 7  23397555.825          47.250
     87620.972 7  23264221.628          47.500
    618949.931 6  24478431.565          43.500
   1043829.791 7  20563137.233          50.250
    261135.502 7  20890036.452          48.000
    801835.149 7  21975142.562          49.250
 96  2  5 16 55 55.9999999  0  7G 1G 6G29G20G25G22G14
    509637.188 7  23001592.740          48.250
    665142.501 7  23397448.958          47.250
     87208.474 7  23264067.254          47.500
    619207.380 6  24478404.830          43.500
   1043825.771 7  20563060.559          50.250
    260800.560 7  20889896.961          48.000
    801731.655 7  21975046.999          49.250
 96  2  5 16 55 56.0999999  0  7G 1G 6G29G20G25G22G14
    509848.868 7  23001663.143          48.250
    664979.404 7  23397447.958          47.250
     86795.466 7  23264018.748          47.750
    619464.312 6  24478483.675          43.500
   1043821.258 7  20563089.751          50.500
    260465.115 7  20889863.336          48.000
    801627.654 7  21975057.447          49.500
 96  2  5 16 55 56.1999999  0  7G 1G 6G29G20G25G22G14
    510060.553 7  23001733.546          48.250
    664816.279 7  23397446.958          47.250
     86382.429 7  23263970.384          47.750
    619721.223 6  24478562.664          43.500
   1043816.708 7  20563119.087          50.500
    260129.649 7  20889829.425          48.000
    801523.641 7  21975067.608          49.500
 96  2  5 16 55 56.2999999  0  7G 1G 6G29G20G25G22G14
    510272.208 7  23001803.797          48.250
    664653.151 7  23397446.236          47.250
     85969.384 7  23263921.726          47.750
    619978.119 6  24478641.500          43.500
   1043812.167 7  20563148.270          50.500
    259794.177 7  20889795.648          48.000
    801419.611 7  21975077.904          49.500
 96  2  5 16 55 56.3999999  0  7G 1G 6G29G20G25G22G14
    510483.881 7  23001874.200          48.250
    664490.050 7  23397445.236          47.250
     85556.345 7  23263873.220          47.750
    620235.021 6  24478720.632          43.500
   1043807.601 7  20563177.320          50.500
    259458.707 7  20889761.880          48.000
    801315.610 7  21975088.065          49.500
 96  2  5 16 55 56.4999999  0  7G 1G 6G29G20G25G22G14
    510695.620 7  23001944.460          48.250
    664326.985 7  23397444.093          47.250
     85143.364 7  23263824.856          47.750
    620491.971 6  24478799.477          43.500
   1043803.130 7  20563206.512          50.500
    259123.313 7  20889728.255          48.000
    801211.647 7  21975098.513          49.500
 96  2  5 16 55 56.5999999  0  7G 1G 6G29G20G25G22G14
    510907.313 7  23002014.863          48.250
    664163.907 7  23397443.093          47.250
     84730.359 7  23263776.207          47.750
    620748.914 6  24478878.609          43.500
   1043798.610 7  20563235.848          50.500
    258787.887 7  20889694.487          48.000
    801107.693 7  21975108.817          49.500
 96  2  5 16 55 56.6999999  0  7G 1G 6G29G20G25G22G14
    511118.990 7  23002085.266          48.250
    664000.819 7  23397442.380          47.250
     84317.326 7  23263727.701          47.750
    621005.817 6  24478957.454          43.500
   1043794.079 7  20563265.040          50.500
    258452.424 7  20889660.576          48.000
    801003.690 7  21975118.978          49.500
 96  2  5 16 55 56.7999999  0  7G 1G 6G29G20G25G22G14
    511330.655 7  23002155.517          48.250
    663837.714 7  23397441.371          47.250
     83904.268 7  23263679.042          47.750
    621262.708 6  24479036.434          43.500
   1043789.533 7  20563294.224          50.500
    258116.978 7  20889626.799          48.000
    800899.712 7  21975129.417          49.500
 96  2  5 16 55 56.8999999  0  7G 1G 6G29G20G25G22G14
    511542.316 7  23002225.920          48.250
    663674.597 7  23397440.371          47.250
     83491.216 7  23263630.536          47.750
    621519.597 6  24479115.280          43.500
   1043784.980 7  20563323.417          50.500
    257781.514 7  20889593.032          48.000
    800795.706 7  21975139.578          49.500
 96  2  5 16 55 56.9999999  0  7G 1G 6G29G20G25G22G14
    511754.470 7  23002190.622          48.250
    663511.988 7  23397333.670          47.250
     83078.654 7  23263476.614          47.750
    621776.976 6  24479088.710          43.500
   1043780.918 7  20563247.051          50.500
    257446.542 7  20889453.848          48.000
    800692.190 7  21975044.324          49.500
 96  2  5 16 55 57.0999999  0  7G 1G 6G29G20G25G22G14
    511966.088 7  23002261.025          48.250
    663348.854 7  23397332.670          47.250
     82665.562 7  23263427.822          47.750
    622033.820 6  24479167.555          43.250
   1043776.335 7  20563276.243          50.500
    257111.059 7  20889419.937          48.250
    800588.171 7  21975054.486          49.250
 96  2  5 16 55 57.1999999  0  7G 1G 6G29G20G25G22G14
    512177.712 7  23002331.285          48.250
    663185.725 7  23397331.670          47.250
     82252.474 7  23263379.458          47.750
    622290.681 6  24479246.687          43.250
   1043771.759 7  20563305.436          50.500
    256775.577 7  20889386.169          48.250
    800484.140 7  21975064.790          49.250
 96  2  5 16 55 57.2999999  0  7G 1G 6G29G20G25G22G14
    512389.335 7  23002401.679          48.250
    663022.600 7  23397330.661          47.250
     81839.390 7  23263330.800          47.750
    622547.550 6  24479325.523          43.250
   1043767.174 7  20563334.620          50.500
    256440.093 7  20889352.393          48.250
    800380.142 7  21975075.086          49.250
 96  2  5 16 55 57.3999999  0  7G 1G 6G29G20G25G22G14
    512600.929 7  23002471.939          48.250
    662859.451 7  23397329.805          47.250
     81426.272 7  23263282.294          47.750
    622804.332 6  24479404.369          43.250
   1043762.568 7  20563363.812          50.500
    256104.580 7  20889318.768          48.250
    800276.079 7  21975085.247          49.250
 96  2  5 16 55 57.4999999  0  7G 1G 6G29G20G25G22G14
    512812.549 7  23002542.342          48.250
    662696.340 7  23397328.805          47.250
     81013.188 7  23263233.644          47.750
    623061.209 6  24479483.357          43.250
   1043757.992 7  20563393.005          50.500
    255769.101 7  20889285.000          48.250
    800172.083 7  21975095.551          49.250
 96  2  5 16 55 57.5999999  0  7G 1G 6G29G20G25G22G14
    513024.167 7  23002612.602          48.250
    662533.224 7  23397327.805          47.250
     80600.090 7  23263185.281          47.750
    623318.038 6  24479562.203          43.250
   1043753.424 7  20563422.340          50.500
    255433.622 7  20889251.089          48.250
    800068.071 7  21975105.856          49.250
 96  2  5 16 55 57.6999999  0  7G 1G 6G29G20G25G22G14
    513235.785 7  23002683.005          48.250
    662370.099 7  23397326.805          47.250
     80186.987 7  23263136.631          47.750
    623574.875 6  24479641.334          43.250
   1043748.828 7  20563451.390          50.500
    255098.143 7  20889217.321          48.250
    799964.064 7  21975116.160          49.250
 96  2  5 16 55 57.7999999  0  7G 1G 6G29G20G25G22G14
    513447.373 7  23002753.399          48.250
    662206.985 7  23397325.796          47.250
     79773.883 7  23263088.116          47.750
    623831.711 6  24479720.171          43.250
   1043744.241 7  20563480.573          50.500
    254762.656 7  20889183.687          48.250
    799860.051 7  21975126.313          49.250
 96  2  5 16 55 57.8999999  0  7G 1G 6G29G20G25G22G14
    513659.007 7  23002823.516          48.250
    662043.881 7  23397324.796          47.250
     79360.779 7  23263039.467          47.750
    624088.538 6  24479799.016          43.250
   1043739.665 7  20563509.766          50.500
    254427.183 7  20889149.919          48.250
    799756.047 7  21975136.617          49.250
 96  2  5 16 55 57.9999999  0  7G 1G 6G29G20G25G22G14
    513871.126 7  23002788.270          48.250
    661881.283 7  23397218.434          47.250
     78948.190 7  23262885.455          47.750
    624345.885 6  24479772.499          43.250
   1043735.594 7  20563433.453          50.500
    254092.229 7  20889010.503          48.250
    799652.581 7  21975041.272          49.250
 96  2  5 16 55 58.0999999  0  7G 1G 6G29G20G25G22G14
    514082.705 7  23002858.673          48.000
    661718.134 7  23397217.434          47.250
     78535.044 7  23262836.805          48.000
    624602.682 6  24479851.344          43.500
   1043730.976 7  20563462.645          50.250
    253756.720 7  20888976.735          48.250
    799548.536 7  21975051.720          49.250
 96  2  5 16 55 58.1999999  0  7G 1G 6G29G20G25G22G14
    514294.250 7  23002929.076          48.000
    661554.970 7  23397216.434          47.250
     78121.875 7  23262788.299          48.000
    624859.427 6  24479930.476          43.500
   1043726.323 7  20563491.838          50.250
    253421.178 7  20888942.967          48.250
    799444.484 7  21975061.881          49.250
 96  2  5 16 55 58.2999999  0  7G 1G 6G29G20G25G22G14
    514505.813 7  23002999.327          48.000
    661391.813 7  23397215.425          47.250
     77708.713 7  23262739.927          48.000
    625116.226 6  24480009.313          43.500
   1043721.696 7  20563521.021          50.250
    253085.665 7  20888909.190          48.250
    799340.450 7  21975072.177          49.250
 96  2  5 16 55 58.3999999  0  7G 1G 6G29G20G25G22G14
    514717.371 7  23003069.730          48.000
    661228.667 7  23397214.425          47.250
     77295.540 7  23262691.277          48.000
    625372.989 6  24480088.301          43.500
   1043717.050 7  20563550.071          50.250
    252750.138 7  20888875.279          48.250
    799236.394 7  21975082.338          49.250
 96  2  5 16 55 58.4999999  0  7G 1G 6G29G20G25G22G14
    514928.921 7  23003139.990          48.000
    661065.525 7  23397213.425          47.250
     76882.388 7  23262642.771          48.000
    625629.753 6  24480167.147          43.500
   1043712.432 7  20563579.263          50.250
    252414.635 7  20888841.654          48.250
    799132.386 7  21975092.785          49.250
 96  2  5 16 55 58.5999999  0  7G 1G 6G29G20G25G22G14
    515140.507 7  23003210.393          48.000
    660902.402 7  23397212.569          47.250
     76469.237 7  23262594.121          48.000
    625886.552 6  24480245.992          43.500
   1043707.821 7  20563608.456          50.250
    252079.132 7  20888807.886          48.250
    799028.369 7  21975102.947          49.250
 96  2  5 16 55 58.6999999  0  7G 1G 6G29G20G25G22G14
    515352.092 7  23003280.796          48.000
    660739.292 7  23397211.569          47.250
     76056.100 7  23262545.758          48.000
    626143.327 6  24480325.124          43.500
   1043703.211 7  20563637.648          50.250
    251743.651 7  20888773.975          48.250
    798924.383 7  21975113.251          49.250
 96  2  5 16 55 58.7999999  0  7G 1G 6G29G20G25G22G14
    515563.640 7  23003351.047          48.000
    660576.152 7  23397210.560          47.250
     75642.935 7  23262496.956          48.000
    626400.106 6  24480403.960          43.500
   1043698.585 7  20563666.832          50.250
    251408.146 7  20888740.198          48.250
    798820.346 7  21975123.547          49.250
 96  2  5 16 55 58.8999999  0  7G 1G 6G29G20G25G22G14
    515775.165 7  23003421.307          48.000
    660412.996 7  23397209.560          47.250
     75229.744 7  23262448.593          48.000
    626656.827 6  24480482.949          43.500
   1043693.932 7  20563696.025          50.250
    251072.614 7  20888706.574          48.250
    798716.319 7  21975133.851          49.250
 96  2  5 16 55 58.9999999  0  7G 1G 6G29G20G25G22G14
    515987.193 7  23003386.867          48.000
    660250.355 7  23397103.718          47.250
     74817.063 7  23262294.958          48.000
    626914.087 6  24480456.951          43.500
   1043689.779 7  20563620.374          50.250
    250737.583 7  20888567.820          48.250
    798612.789 7  21975039.170          49.250
 96  2  5 16 55 59.0999999  0  7G 1G 6G29G20G25G22G14
    516198.717 7  23003457.270          48.250
    660087.197 7  23397102.718          47.250
     74403.854 7  23262246.308          47.750
    627170.823 6  24480535.797          43.500
   1043685.125 7  20563649.567          50.500
    250402.052 7  20888534.052          48.250
    798508.743 7  21975049.474          49.500
 96  2  5 16 55 59.1999999  0  7G 1G 6G29G20G25G22G14
    516410.223 7  23003527.530          48.250
    659924.033 7  23397101.861          47.250
     73990.639 7  23262197.945          47.750
    627427.533 6  24480614.928          43.500
   1043680.443 7  20563678.759          50.500
    250066.504 7  20888500.284          48.250
    798404.697 7  21975059.635          49.500
 96  2  5 16 55 59.2999999  0  7G 1G 6G29G20G25G22G14
    516621.723 7  23003597.924          48.250
    659760.867 7  23397100.852          47.250
     73577.416 7  23262149.287          47.750
    627684.219 6  24480693.765          43.500
   1043675.770 7  20563707.943          50.500
    249730.952 7  20888466.650          48.250
    798300.640 7  21975070.074          49.500
 96  2  5 16 55 59.3999999  0  7G 1G 6G29G20G25G22G14
    516833.249 7  23003668.041          48.250
    659597.746 7  23397099.852          47.250
     73164.228 7  23262100.780          47.750
    627940.974 6  24480772.610          43.500
   1043671.120 7  20563736.992          50.500
    249395.442 7  20888432.739          48.250
    798196.625 7  21975080.235          49.500
 96  2  5 16 55 59.4999999  0  7G 1G 6G29G20G25G22G14
    517044.767 7  23003738.444          48.250
    659434.596 7  23397098.852          47.250
     72751.023 7  23262052.131          47.750
    628197.704 6  24480851.599          43.500
   1043666.480 7  20563766.328          50.500
    249059.924 7  20888398.971          48.250
    798092.614 7  21975090.540          49.500
 96  2  5 16 55 59.5999999  0  7G 1G 6G29G20G25G22G14
    517256.274 7  23003808.704          48.250
    659271.446 7  23397097.853          47.250
     72337.800 7  23262003.624          47.750
    628454.401 6  24480930.444          43.500
   1043661.809 7  20563795.521          50.500
    248724.392 7  20888365.203          48.250
    797988.579 7  21975100.844          49.500
 96  2  5 16 55 59.6999999  0  7G 1G 6G29G20G25G22G14
    517467.776 7  23003879.107          48.250
    659108.293 7  23397096.853          47.250
     71924.588 7  23261954.975          47.750
    628711.102 6  24481009.290          43.500
   1043657.131 7  20563824.713          50.500
    248388.854 7  20888331.579          48.250
    797884.551 7  21975111.148          49.500
 96  2  5 16 55 59.7999999  0  7G 1G 6G29G20G25G22G14
    517679.282 7  23003949.358          48.250
    658945.141 7  23397095.844          47.250
     71511.360 7  23261906.317          47.750
    628967.807 6  24481088.126          43.500
   1043652.469 7  20563853.897          50.500
    248053.321 7  20888297.659          48.250
    797780.522 7  21975121.301          49.500
 96  2  5 16 55 59.8999999  0  7G 1G 6G29G20G25G22G14
    517890.773 7  23004019.761          48.250
    658781.992 7  23397094.701          47.250
     71098.137 7  23261857.953          47.750
    629224.513 6  24481167.258          43.500
   1043647.798 7  20563882.946          50.500
    247717.785 7  20888263.891          48.250
    797676.495 7  21975131.605          49.500
 96  2  5 16 55 59.9999999  0  7G 1G 6G29G20G25G22G14
    518102.770 7  23003984.590          48.250
    658619.342 7  23396988.700          47.250
     70685.398 7  23261703.873          47.750
    629481.687 6  24481140.672          43.500
   1043643.613 7  20563806.851          50.500
    247382.749 7  20888124.835          48.250
    797572.964 7  21975036.479          49.500
 96  2  5 16 56  0.0999999  0  7G 1G 6G29G20G25G22G14
    518314.248 7  23004054.850          48.000
    658456.190 7  23396987.557          47.000
     70272.150 7  23261655.510          47.750
    629738.397 6  24481219.518          43.250
   1043638.941 7  20563836.043          50.250
    247047.214 7  20888091.067          48.500
    797468.938 7  21975046.783          49.250
 96  2  5 16 56  0.1999999  0  7G 1G 6G29G20G25G22G14
    518525.709 7  23004125.253          48.000
    658293.020 7  23396986.557          47.000
     69858.892 7  23261606.717          47.750
    629995.024 6  24481298.649          43.250
   1043634.239 7  20563865.236          50.250
    246711.654 7  20888057.442          48.500
    797364.895 7  21975057.087          49.250
 96  2  5 16 56  0.2999999  0  7G 1G 6G29G20G25G22G14
    518737.161 7  23004195.504          48.000
    658129.843 7  23396985.548          47.000
     69445.606 7  23261558.059          47.750
    630251.690 6  24481377.486          43.250
   1043629.529 7  20563894.420          50.250
    246376.095 7  20888023.379          48.500
    797260.838 7  21975067.383          49.250
 96  2  5 16 56  0.3999999  0  7G 1G 6G29G20G25G22G14
    518948.588 7  23004265.907          48.000
    657966.662 7  23396984.548          47.000
     69032.325 7  23261509.695          47.750
    630508.310 6  24481456.331          43.250
   1043624.804 7  20563923.612          50.250
    246040.507 7  20887989.755          48.500
    797156.767 7  21975077.687          49.250
 96  2  5 16 56  0.4999999  0  7G 1G 6G29G20G25G22G14
    519160.063 7  23004336.023          48.000
    657803.523 7  23396983.548          47.000
     68619.070 7  23261461.046          47.750
    630764.975 6  24481535.177          43.250
   1043620.115 7  20563952.662          50.250
    245704.981 7  20887955.987          48.500
    797052.739 7  21975087.849          49.250
 96  2  5 16 56  0.5999999  0  7G 1G 6G29G20G25G22G14
    519371.531 7  23004406.426          48.000
    657640.378 7  23396982.548          47.000
     68205.825 7  23261412.540          47.750
    631021.656 6  24481614.165          43.250
   1043615.434 7  20563981.854          50.250
    245369.450 7  20887922.076          48.500
    796948.735 7  21975098.153          49.250
 96  2  5 16 56  0.6999999  0  7G 1G 6G29G20G25G22G14
    519583.007 7  23004476.686          48.000
    657477.231 7  23396981.692          47.000
     67792.557 7  23261363.890          47.750
    631278.313 6  24481693.011          43.250
   1043610.740 7  20564011.047          50.250
    245033.911 7  20887888.451          48.500
    796844.710 7  21975108.457          49.250
 96  2  5 16 56  0.7999999  0  7G 1G 6G29G20G25G22G14
    519794.483 7  23004547.081          48.000
    657314.115 7  23396980.683          47.000
     67379.294 7  23261315.232          47.750
    631534.990 6  24481771.847          43.250
   1043606.069 7  20564040.230          50.250
    244698.389 7  20887854.674          48.500
    796740.708 7  21975118.753          49.250
 96  2  5 16 56  0.8999999  0  7G 1G 6G29G20G25G22G14
    520005.966 7  23004617.340          48.000
    657150.989 7  23396979.683          47.000
     66966.062 7  23261266.725          47.750
    631791.665 6  24481850.979          43.250
   1043601.408 7  20564069.423          50.250
    244362.884 7  20887820.906          48.500
    796636.722 7  21975128.914          49.250
 96  2  5 16 56  0.9999999  0  7G 1G 6G29G20G25G22G14
    520217.914 7  23004583.049          48.000
    656988.335 7  23396873.989          47.000
     66553.275 7  23261113.381          47.750
    632048.791 6  24481824.987          43.250
   1043597.194 7  20563993.778          50.250
    244027.819 7  20887682.301          48.500
    796533.191 7  21975034.524          49.250
 96  2  5 16 56  1.0999999  0  7G 1G 6G29G20G25G22G14
    520429.343 7  23004653.166          47.750
    656825.166 7  23396872.989          47.000
     66139.979 7  23261064.875          47.750
    632305.413 6  24481903.832          43.250
   1043592.476 7  20564022.970          50.250
    243692.266 7  20887648.533          48.500
    796429.149 7  21975044.829          49.250
 96  2  5 16 56  1.1999999  0  7G 1G 6G29G20G25G22G14
    520640.771 7  23004723.569          47.750
    656661.999 7  23396871.989          47.000
     65726.677 7  23261016.226          47.750
    632562.023 6  24481982.678          43.250
   1043587.739 7  20564052.163          50.250
    243356.698 7  20887614.908          48.500
    796325.111 7  21975055.133          49.250
 96  2  5 16 56  1.2999999  0  7G 1G 6G29G20G25G22G14
    520852.199 7  23004793.820          47.750
    656498.845 7  23396870.980          47.000
     65313.370 7  23260967.567          47.750
    632818.638 6  24482061.800          43.250
   1043583.024 7  20564081.347          50.250
    243021.133 7  20887580.988          48.500
    796221.085 7  21975065.286          49.250
 96  2  5 16 56  1.3999999  0  7G 1G 6G29G20G25G22G14
    521063.620 7  23004864.223          47.750
    656335.682 7  23396870.124          47.000
     64900.051 7  23260918.918          47.750
    633075.238 6  24482140.646          43.250
   1043578.283 7  20564110.539          50.250
    242685.571 7  20887547.220          48.500
    796117.044 7  21975075.590          49.250
 96  2  5 16 56  1.4999999  0  7G 1G 6G29G20G25G22G14
    521275.037 7  23004934.483          47.750
    656172.515 7  23396869.124          47.000
     64486.746 7  23260870.411          47.750
    633331.860 6  24482219.491          43.250
   1043573.563 7  20564139.732          50.250
    242350.014 7  20887513.452          48.500
    796013.007 7  21975085.894          49.250
 96  2  5 16 56  1.5999999  0  7G 1G 6G29G20G25G22G14
    521486.481 7  23005004.886          47.750
    656009.383 7  23396868.124          47.000
     64073.450 7  23260821.762          47.750
    633588.484 6  24482298.337          43.250
   1043568.859 7  20564168.924          50.250
    242014.485 7  20887479.827          48.500
    795909.008 7  21975096.056          49.250
 96  2  5 16 56  1.6999999  0  7G 1G 6G29G20G25G22G14
    521697.888 7  23005075.146          47.750
    655846.221 7  23396867.124          47.000
     63660.132 7  23260773.399          47.750
    633845.070 6  24482377.182          43.250
   1043564.135 7  20564198.117          50.250
    241678.921 7  20887445.773          48.500
    795804.980 7  21975106.360          49.250
 96  2  5 16 56  1.7999999  0  7G 1G 6G29G20G25G22G14
    521909.283 7  23005145.397          47.750
    655683.055 7  23396866.115          47.000
     63246.793 7  23260724.740          47.750
    634101.650 6  24482456.162          43.250
   1043559.391 7  20564227.014          50.250
    241343.345 7  20887412.140          48.500
    795700.930 7  21975116.512          49.250
 96  2  5 16 56  1.8999999  0  7G 1G 6G29G20G25G22G14
    522120.688 7  23005215.657          47.750
    655519.894 7  23396865.115          47.000
     62833.462 7  23260675.948          47.750
    634358.204 6  24482535.007          43.250
   1043554.647 7  20564256.207          50.250
    241007.779 7  20887378.372          48.500
    795596.901 7  21975126.960          49.250
 96  2  5 16 56  1.9999999  0  7G 1G 6G29G20G25G22G14
    522332.576 7  23005180.960          47.750
    655357.230 7  23396759.302          47.000
     62420.621 7  23260522.342          47.750
    634615.304 6  24482508.896          43.250
   1043550.397 7  20564180.443          50.250
    240672.703 7  20887239.504          48.500
    795493.366 7  21975032.165          49.250
 96  2  5 16 56  2.0999999  0  7G 1G 6G29G20G25G22G14
    522543.974 7  23005251.363          48.000
    655194.069 7  23396758.302          47.000
     62007.274 7  23260473.836          47.750
    634871.865 6  24482587.742          43.750
   1043545.654 7  20564209.636          50.250
    240337.134 7  20887205.737          48.250
    795389.325 7  21975042.469          49.250
 96  2  5 16 56  2.1999999  0  7G 1G 6G29G20G25G22G14
    522755.350 7  23005321.623          48.000
    655030.895 7  23396757.303          47.000
     61593.928 7  23260425.186          47.750
    635128.430 6  24482666.587          43.750
   1043540.898 7  20564238.685          50.250
    240001.558 7  20887172.112          48.250
    795285.290 7  21975052.631          49.250
 96  2  5 16 56  2.2999999  0  7G 1G 6G29G20G25G22G14
    522966.794 7  23005391.874          48.000
    654867.787 7  23396756.151          47.000
     61180.617 7  23260376.528          47.750
    635385.053 6  24482745.424          43.750
   1043536.195 7  20564267.869          50.250
    239666.038 7  20887138.049          48.250
    795181.326 7  21975063.069          49.250
 96  2  5 16 56  2.3999999  0  7G 1G 6G29G20G25G22G14
    523178.184 7  23005462.134          48.000
    654704.638 7  23396755.294          47.000
     60767.271 7  23260328.165          47.750
    635641.615 6  24482824.412          43.750
   1043531.464 7  20564297.061          50.250
    239330.491 7  20887104.424          48.250
    795077.314 7  21975073.231          49.250
 96  2  5 16 56  2.4999999  0  7G 1G 6G29G20G25G22G14
    523389.574 7  23005532.394          48.000
    654541.492 7  23396754.294          47.000
     60353.930 7  23260279.372          47.750
    635898.182 6  24482903.258          43.750
   1043526.721 7  20564326.254          50.250
    238994.924 7  20887070.656          48.250
    794973.289 7  21975083.535          49.250
 96  2  5 16 56  2.5999999  0  7G 1G 6G29G20G25G22G14
    523600.950 7  23005602.797          48.000
    654378.328 7  23396753.151          47.000
     59940.571 7  23260230.722          47.750
    636154.734 6  24482982.103          43.750
   1043521.969 7  20564355.303          50.250
    238659.346 7  20887036.745          48.250
    794869.275 7  21975093.982          49.250
 96  2  5 16 56  2.6999999  0  7G 1G 6G29G20G25G22G14
    523812.344 7  23005672.914          48.000
    654215.178 7  23396752.437          47.000
     59527.220 7  23260182.359          47.750
    636411.300 6  24483060.949          43.750
   1043517.210 7  20564384.496          50.250
    238323.798 7  20887002.977          48.250
    794765.267 7  21975104.144          49.250
 96  2  5 16 56  2.7999999  0  7G 1G 6G29G20G25G22G14
    524023.737 7  23005743.308          48.000
    654052.043 7  23396751.429          47.000
     59113.855 7  23260133.701          47.750
    636667.855 6  24483139.785          43.750
   1043512.465 7  20564413.679          50.250
    237988.238 7  20886969.200          48.250
    794661.256 7  21975114.296          49.250
 96  2  5 16 56  2.8999999  0  7G 1G 6G29G20G25G22G14
    524235.095 7  23005813.568          48.000
    653888.890 7  23396750.429          47.000
     58700.492 7  23260085.194          47.750
    636924.387 6  24483218.917          43.750
   1043507.723 7  20564442.872          50.250
    237652.670 7  20886935.289          48.250
    794557.235 7  21975124.601          49.250
 96  2  5 16 56  2.9999999  0  7G 1G 6G29G20G25G22G14
    524447.002 7  23005779.512          48.000
    653726.265 7  23396644.827          47.000
     58287.652 7  23259932.086          47.750
    637181.465 6  24483193.160          43.750
   1043503.489 7  20564367.606          50.250
    237317.646 7  20886797.063          48.250
    794453.757 7  21975030.589          49.250
 96  2  5 16 56  3.0999999  0  7G 1G 6G29G20G25G22G14
    524658.392 7  23005849.629          47.750
    653563.136 7  23396643.827          47.000
     57874.300 7  23259883.437          47.750
    637438.023 6  24483272.006          43.500
   1043498.745 7  20564396.798          50.250
    236982.099 7  20886763.295          48.250
    794349.770 7  21975040.751          49.000
 96  2  5 16 56  3.1999999  0  7G 1G 6G29G20G25G22G14
    524869.764 7  23005919.889          47.750
    653400.009 7  23396642.827          47.000
     57460.938 7  23259834.930          47.750
    637694.575 6  24483350.851          43.500
   1043494.003 7  20564425.991          50.250
    236646.548 7  20886729.384          48.250
    794245.766 7  21975050.912          49.000
 96  2  5 16 56  3.2999999  0  7G 1G 6G29G20G25G22G14
    525081.146 7  23005990.283          47.750
    653236.871 7  23396641.819          47.000
     57047.563 7  23259786.272          47.750
    637951.126 6  24483429.974          43.500
   1043489.262 7  20564455.031          50.250
    236310.999 7  20886695.750          48.250
    794141.770 7  21975061.207          49.000
 96  2  5 16 56  3.3999999  0  7G 1G 6G29G20G25G22G14
    525292.511 7  23006060.543          47.750
    653073.746 7  23396640.962          47.000
     56634.207 7  23259737.622          47.750
    638207.665 6  24483508.819          43.500
   1043484.505 7  20564484.081          50.250
    235975.450 7  20886661.982          48.250
    794037.780 7  21975071.655          49.000
 96  2  5 16 56  3.4999999  0  7G 1G 6G29G20G25G22G14
    525503.896 7  23006130.803          47.750
    652910.630 7  23396639.962          47.000
     56220.846 7  23259689.116          47.750
    638464.200 6  24483587.522          43.500
   1043479.771 7  20564513.273          50.250
    235639.917 7  20886628.071          48.250
    793933.807 7  21975081.816          49.000
 96  2  5 16 56  3.5999999  0  7G 1G 6G29G20G25G22G14
    525715.277 7  23006201.063          47.750
    652747.527 7  23396638.962          47.000
     55807.493 7  23259640.467          47.750
    638720.766 6  24483666.367          43.500
   1043475.041 7  20564542.466          50.250
    235304.381 7  20886594.446          48.250
    793829.825 7  21975092.121          49.000
 96  2  5 16 56  3.6999999  0  7G 1G 6G29G20G25G22G14
    525926.686 7  23006271.466          47.750
    652584.438 7  23396637.962          47.000
     55394.152 7  23259591.817          47.750
    638977.310 6  24483745.212          43.500
   1043470.323 7  20564571.658          50.250
    234968.863 7  20886560.535          48.250
    793725.872 7  21975102.425          49.000
 96  2  5 16 56  3.7999999  0  7G 1G 6G29G20G25G22G14
    526138.116 7  23006341.717          47.750
    652421.390 7  23396636.954          47.000
     54980.841 7  23259543.302          47.750
    639233.917 6  24483824.335          43.500
   1043465.638 7  20564600.842          50.250
    234633.400 7  20886526.758          48.250
    793621.966 7  21975112.721          49.000
 96  2  5 16 56  3.8999999  0  7G 1G 6G29G20G25G22G14
    526349.521 7  23006411.834          47.750
    652258.309 7  23396636.240          47.000
     54567.495 7  23259494.652          47.750
    639490.483 6  24483903.181          43.500
   1043460.920 7  20564629.891          50.250
    234297.893 7  20886492.990          48.250
    793518.032 7  21975123.025          49.000
 96  2  5 16 56  3.9999999  0  7G 1G 6G29G20G25G22G14
    526561.407 7  23006377.446          47.750
    652095.716 7  23396530.306          47.000
     54154.650 7  23259341.356          47.750
    639747.538 6  24483877.236          43.500
   1043456.717 7  20564554.293          50.250
    233962.885 7  20886354.432          48.250
    793414.580 7  21975028.396          49.000
 96  2  5 16 56  4.0999999  0  7G 1G 6G29G20G25G22G14
    526772.802 7  23006447.706          47.750
    651932.629 7  23396529.307          47.000
     53741.296 7  23259292.706          47.750
    640004.068 6  24483956.081          43.750
   1043451.976 7  20564583.486          50.250
    233627.358 7  20886320.521          48.250
    793310.639 7  21975038.843          49.000
 96  2  5 16 56  4.1999999  0  7G 1G 6G29G20G25G22G14
    526984.184 7  23006518.109          47.750
    651769.539 7  23396528.307          47.000
     53327.933 7  23259244.057          47.750
    640260.604 6  24484034.926          43.750
   1043447.257 7  20564612.678          50.250
    233291.849 7  20886286.753          48.250
    793206.688 7  21975049.148          49.000
 96  2  5 16 56  4.2999999  0  7G 1G 6G29G20G25G22G14
    527195.569 7  23006588.360          47.750
    651606.461 7  23396527.298          47.000
     52914.569 7  23259195.541          47.750
    640517.155 6  24484113.906          43.750
   1043442.532 7  20564641.862          50.250
    232956.340 7  20886253.120          48.250
    793102.749 7  21975059.300          49.000
 96  2  5 16 56  4.3999999  0  7G 1G 6G29G20G25G22G14
    527406.951 7  23006658.477          47.750
    651443.376 7  23396526.298          47.000
     52501.207 7  23259146.892          47.750
    640773.703 6  24484192.752          43.750
   1043437.807 7  20564671.055          50.250
    232620.835 7  20886219.352          48.250
    792998.819 7  21975069.605          49.000
 96  2  5 16 56  4.4999999  0  7G 1G 6G29G20G25G22G14
    527618.385 7  23006728.880          47.750
    651280.354 7  23396525.298          47.000
     52087.896 7  23259098.242          47.750
    641030.296 6  24484271.597          43.750
   1043433.135 7  20564700.104          50.250
    232285.383 7  20886185.441          48.250
    792894.933 7  21975079.909          49.000
 96  2  5 16 56  4.5999999  0  7G 1G 6G29G20G25G22G14
    527829.799 7  23006799.283          47.750
    651117.320 7  23396524.441          47.000
     51674.565 7  23259049.879          47.750
    641286.863 6  24484350.442          43.750
   1043428.451 7  20564729.297          50.250
    231949.908 7  20886151.673          48.250
    792791.029 7  21975090.213          49.000
 96  2  5 16 56  4.6999999  0  7G 1G 6G29G20G25G22G14
    528041.206 7  23006869.543          47.750
    650954.274 7  23396523.441          47.000
     51261.226 7  23259001.086          47.750
    641543.416 6  24484429.288          43.750
   1043423.750 7  20564758.489          50.250
    231614.433 7  20886118.048          48.250
    792687.132 7  21975100.518          49.000
 96  2  5 16 56  4.7999999  0  7G 1G 6G29G20G25G22G14
    528252.612 7  23006939.937          47.750
    650791.231 7  23396522.433          47.000
     50847.881 7  23258952.714          47.750
    641799.980 6  24484508.268          43.750
   1043419.038 7  20564787.530          50.250
    231278.955 7  20886084.271          48.250
    792583.238 7  21975110.813          49.000
 96  2  5 16 56  4.8999999  0  7G 1G 6G29G20G25G22G14
    528464.018 7  23007010.054          47.750
    650628.192 7  23396521.433          47.000
     50434.532 7  23258904.065          47.750
    642056.544 6  24484587.113          43.750
   1043414.347 7  20564816.722          50.250
    230943.487 7  20886050.360          48.250
    792479.352 7  21975121.261          49.000
 96  2  5 16 56  4.9999999  0  7G 1G 6G29G20G25G22G14
    528675.915 7  23006975.733          47.750
    650465.651 7  23396415.852          47.000
     50021.677 7  23258750.834          47.750
    642313.577 6  24484561.377          43.750
   1043410.150 7  20564741.334          50.250
    230608.515 7  20885912.011          48.250
    792375.944 7  21975026.841          49.000
 96  2  5 16 56  5.0999999  0  7G 1G 6G29G20G25G22G14
    528887.284 7  23007045.992          48.000
    650302.583 7  23396414.852          47.000
     49608.298 7  23258702.328          48.000
    642570.082 6  24484640.223          43.750
   1043405.413 7  20564770.526          50.250
    230273.004 7  20885878.243          48.250
    792272.026 7  21975037.145          49.000
 96  2  5 16 56  5.1999999  0  7G 1G 6G29G20G25G22G14
    529098.697 7  23007116.395          48.000
    650139.577 7  23396413.995          47.000
     49194.975 7  23258653.678          48.000
    642826.669 6  24484719.068          43.750
   1043400.734 7  20564799.719          50.250
    229937.555 7  20885844.618          48.250
    792168.165 7  21975047.450          49.000
 96  2  5 16 56  5.2999999  0  7G 1G 6G29G20G25G22G14
    529310.096 7  23007186.504          48.000
    649976.551 7  23396412.987          47.000
     48781.610 7  23258605.020          48.000
    643083.211 6  24484797.905          43.750
   1043396.036 7  20564828.902          50.250
    229602.086 7  20885810.842          48.250
    792064.269 7  21975057.745          49.000
 96  2  5 16 56  5.3999999  0  7G 1G 6G29G20G25G22G14
    529521.458 7  23007256.906          48.000
    649813.477 7  23396411.987          47.000
     48368.218 7  23258556.514          48.000
    643339.717 6  24484876.893          43.750
   1043391.297 7  20564858.095          50.250
    229266.585 7  20885776.931          48.250
    791960.354 7  21975068.050          49.000
 96  2  5 16 56  5.4999999  0  7G 1G 6G29G20G25G22G14
    529732.856 7  23007327.166          48.000
    649650.457 7  23396410.987          47.000
     47954.866 7  23258507.864          48.000
    643596.260 6  24484955.739          43.750
   1043386.604 7  20564887.287          50.250
    228931.133 7  20885743.163          48.250
    791856.479 7  21975078.354          49.000
 96  2  5 16 56  5.5999999  0  7G 1G 6G29G20G25G22G14
    529944.256 7  23007397.569          48.000
    649487.449 7  23396410.130          47.000
     47541.515 7  23258459.215          48.000
    643852.821 6  24485034.584          43.750
   1043381.913 7  20564916.480          50.250
    228595.672 7  20885709.538          48.250
    791752.621 7  21975088.515          49.000
 96  2  5 16 56  5.6999999  0  7G 1G 6G29G20G25G22G14
    530155.653 7  23007467.686          48.000
    649324.434 7  23396409.130          47.000
     47128.163 7  23258410.708          48.000
    644109.353 6  24485113.429          43.750
   1043377.222 7  20564945.672          50.250
    228260.231 7  20885675.770          48.250
    791648.756 7  21975098.820          49.000
 96  2  5 16 56  5.7999999  0  7G 1G 6G29G20G25G22G14
    530367.078 7  23007538.080          48.000
    649161.442 7  23396408.122          47.000
     46714.818 7  23258362.050          48.000
    644365.921 6  24485192.266          43.750
   1043372.547 7  20564974.856          50.250
    227924.788 7  20885641.850          48.250
    791544.913 7  21975109.258          49.000
 96  2  5 16 56  5.8999999  0  7G 1G 6G29G20G25G22G14
    530578.468 7  23007608.340          48.000
    648998.438 7  23396407.122          47.000
     46301.463 7  23258313.544          48.000
    644622.461 6  24485271.111          43.750
   1043367.856 7  20565003.906          50.250
    227589.345 7  20885608.225          48.250
    791441.055 7  21975119.420          49.000
 96  2  5 16 56  5.9999999  0  7G 1G 6G29G20G25G22G14
    530790.373 7  23007574.080          48.000
    648835.932 7  23396301.745          47.000
     45888.601 7  23258160.374          48.000
    644879.506 6  24485245.580          43.750
   1043363.668 7  20564928.578          50.250
    227254.395 7  20885469.937          48.250
    791337.715 7  21975025.204          49.000
 96  2  5 16 56  6.0999999  0  7G 1G 6G29G20G25G22G14
    531001.753 7  23007644.340          47.750
    648672.912 7  23396300.745          47.000
     45475.225 7  23258111.725          47.750
    645136.011 6  24485324.425          43.750
   1043358.966 7  20564957.771          50.250
    226918.940 7  20885436.169          48.000
    791233.846 7  21975035.508          49.000
 96  2  5 16 56  6.1999999  0  7G 1G 6G29G20G25G22G14
    531213.114 7  23007714.600          47.750
    648509.897 7  23396299.745          47.000
     45061.839 7  23258063.218          47.750
    645392.523 6  24485403.271          43.750
   1043354.248 7  20564986.963          50.250
    226583.467 7  20885402.401          48.000
    791129.973 7  21975045.813          49.000
 96  2  5 16 56  6.2999999  0  7G 1G 6G29G20G25G22G14
    531424.482 7  23007784.851          47.750
    648346.867 7  23396298.737          47.000
     44648.448 7  23258014.560          47.750
    645649.020 6  24485482.108          43.750
   1043349.523 7  20565016.147          50.250
    226247.994 7  20885368.482          48.000
    791026.104 7  21975056.108          49.000
 96  2  5 16 56  6.3999999  0  7G 1G 6G29G20G25G22G14
    531635.836 7  23007855.254          47.750
    648183.836 7  23396297.880          47.000
     44235.051 7  23257965.911          47.750
    645905.494 6  24485560.953          43.750
   1043344.797 7  20565045.339          50.250
    225912.532 7  20885334.857          48.000
    790922.226 7  21975066.413          49.000
 96  2  5 16 56  6.4999999  0  7G 1G 6G29G20G25G22G14
    531847.230 7  23007925.371          47.750
    648020.854 7  23396296.880          47.000
     43821.681 7  23257917.404          47.750
    646162.044 6  24485639.798          43.750
   1043340.111 7  20565074.389          50.250
    225577.091 7  20885301.089          48.000
    790818.390 7  21975076.717          49.000
 96  2  5 16 56  6.5999999  0  7G 1G 6G29G20G25G22G14
    532058.670 7  23007995.774          47.750
    647857.934 7  23396295.880          47.000
     43408.355 7  23257868.755          47.750
    646418.618 6  24485718.644          43.750
   1043335.474 7  20565103.581          50.250
    225241.704 7  20885267.321          48.000
    790714.605 7  21975087.165          49.000
 96  2  5 16 56  6.6999999  0  7G 1G 6G29G20G25G22G14
    532270.084 7  23008066.177          47.750
    647694.958 7  23396295.166          47.000
     42995.012 7  23257820.105          47.750
    646675.189 6  24485797.775          43.750
   1043330.806 7  20565132.774          50.250
    224906.298 7  20885233.410          48.000
    790610.798 7  21975097.469          49.000
 96  2  5 16 56  6.7999999  0  7G 1G 6G29G20G25G22G14
    532481.479 7  23008136.428          47.750
    647531.980 7  23396294.158          47.000
     42581.644 7  23257771.733          47.750
    646931.692 6  24485876.469          43.750
   1043326.114 7  20565161.958          50.250
    224570.870 7  20885199.776          48.000
    790506.975 7  21975107.622          49.000
 96  2  5 16 56  6.8999999  0  7G 1G 6G29G20G25G22G14
    532692.873 7  23008206.688          47.750
    647369.025 7  23396293.158          47.000
     42168.279 7  23257722.941          47.750
    647188.217 6  24485955.314          43.750
   1043321.429 7  20565191.150          50.250
    224235.453 7  20885166.008          48.000
    790403.167 7  21975117.926          49.000
 96  2  5 16 56  6.9999999  0  7G 1G 6G29G20G25G22G14
    532904.757 7  23008172.276          47.750
    647206.532 7  23396187.486          47.000
     41755.408 7  23257569.762          47.750
    647445.251 6  24485929.631          43.750
   1043317.245 7  20565115.671          50.250
    223900.528 7  20885027.712          48.000
    790299.850 7  21975023.702          49.000
 96  2  5 16 56  7.0999999  0  7G 1G 6G29G20G25G22G14
    533116.116 7  23008242.679          48.000
    647043.555 7  23396186.772          47.250
     41342.014 7  23257521.399          48.000
    647701.754 6  24486008.476          43.750
   1043312.530 7  20565144.863          50.500
    223565.085 7  20884994.087          48.250
    790196.021 7  21975033.863          49.000
 96  2  5 16 56  7.1999999  0  7G 1G 6G29G20G25G22G14
    533327.494 7  23008312.939          48.000
    646880.547 7  23396185.772          47.250
     40928.612 7  23257472.606          48.000
    647958.233 6  24486087.608          43.750
   1043307.819 7  20565174.056          50.500
    223229.638 7  20884960.033          48.250
    790092.183 7  21975044.310          49.000
 96  2  5 16 56  7.2999999  0  7G 1G 6G29G20G25G22G14
    533538.878 7  23008383.333          48.000
    646717.589 7  23396184.764          47.250
     40515.224 7  23257423.948          48.000
    648214.763 6  24486166.302          43.750
   1043303.134 7  20565203.097          50.500
    222894.219 7  20884926.399          48.250
    789988.370 7  21975054.606          49.000
 96  2  5 16 56  7.3999999  0  7G 1G 6G29G20G25G22G14
    533750.233 7  23008453.450          48.000
    646554.608 7  23396183.907          47.250
     40101.825 7  23257375.585          48.000
    648471.229 6  24486245.147          43.750
   1043298.429 7  20565232.289          50.500
    222558.776 7  20884892.631          48.250
    789884.550 7  21975064.910          49.000
 96  2  5 16 56  7.4999999  0  7G 1G 6G29G20G25G22G14
    533961.634 7  23008523.853          48.000
    646391.651 7  23396182.907          47.250
     39688.461 7  23257326.935          48.000
    648727.762 6  24486323.992          43.750
   1043293.747 7  20565261.482          50.500
    222223.368 7  20884859.006          48.250
    789780.762 7  21975075.215          49.000
 96  2  5 16 56  7.5999999  0  7G 1G 6G29G20G25G22G14
    534173.022 7  23008594.113          48.000
    646228.704 7  23396181.907          47.250
     39275.084 7  23257278.286          48.000
    648984.269 6  24486402.838          43.750
   1043289.066 7  20565290.531          50.500
    221887.964 7  20884825.095          48.250
    789676.971 7  21975085.376          49.000
 96  2  5 16 56  7.6999999  0  7G 1G 6G29G20G25G22G14
    534384.401 7  23008664.516          48.000
    646065.758 7  23396181.194          47.250
     38861.705 7  23257229.779          48.000
    649240.785 6  24486481.683          43.750
   1043284.381 7  20565319.723          50.500
    221552.566 7  20884791.327          48.250
    789573.178 7  21975095.823          49.000
 96  2  5 16 56  7.7999999  0  7G 1G 6G29G20G25G22G14
    534595.784 7  23008734.624          48.000
    645902.818 7  23396180.185          47.250
     38448.320 7  23257181.121          48.000
    649497.301 6  24486560.520          43.750
   1043279.701 7  20565348.907          50.500
    221217.155 7  20884757.551          48.250
    789469.392 7  21975106.119          49.000
 96  2  5 16 56  7.8999999  0  7G 1G 6G29G20G25G22G14
    534807.164 7  23008805.027          48.000
    645739.865 7  23396179.185          47.250
     38034.939 7  23257132.472          48.000
    649753.799 6  24486639.365          43.750
   1043275.012 7  20565378.100          50.500
    220881.743 7  20884723.926          48.250
    789365.599 7  21975116.423          49.000
 96  2  5 16 56  7.9999999  0  7G 1G 6G29G20G25G22G14
    535019.051 7  23008771.055          48.000
    645577.431 7  23396074.096          47.250
     37622.059 7  23256979.733          48.000
    650010.801 6  24486614.122          43.750
   1043270.826 7  20565303.060          50.500
    220546.861 7  20884585.926          48.250
    789262.334 7  21975022.353          49.000
 96  2  5 16 56  8.0999999  0  7G 1G 6G29G20G25G22G14
    535230.443 7  23008841.314          48.000
    645414.499 7  23396073.096          47.000
     37208.679 7  23256931.084          47.750
    650267.316 6  24486692.967          43.750
   1043266.170 7  20565332.110          50.250
    220211.471 7  20884551.872          48.000
    789158.567 7  21975032.657          49.000
 96  2  5 16 56  8.1999999  0  7G 1G 6G29G20G25G22G14
    535441.796 7  23008911.717          48.000
    645251.532 7  23396072.096          47.000
     36795.262 7  23256882.434          47.750
    650523.802 6  24486771.812          43.750
   1043261.442 7  20565361.302          50.250
    219876.048 7  20884518.247          48.000
    789054.756 7  21975043.105          49.000
 96  2  5 16 56  8.2999999  0  7G 1G 6G29G20G25G22G14
    535653.143 7  23008981.826          48.000
    645088.585 7  23396071.231          47.000
     36381.842 7  23256833.919          47.750
    650780.255 6  24486850.649          43.750
   1043256.729 7  20565390.486          50.250
    219540.626 7  20884484.470          48.000
    788950.960 7  21975053.400          49.000
 96  2  5 16 56  8.3999999  0  7G 1G 6G29G20G25G22G14
    535864.488 7  23009052.228          48.000
    644925.628 7  23396070.231          47.000
     35968.423 7  23256785.270          47.750
    651036.729 6  24486929.495          43.750
   1043252.017 7  20565419.678          50.250
    219205.194 7  20884450.845          48.000
    788847.173 7  21975063.561          49.000
 96  2  5 16 56  8.4999999  0  7G 1G 6G29G20G25G22G14
    536075.879 7  23009122.488          48.000
    644762.695 7  23396069.231          47.000
     35555.028 7  23256736.620          47.750
    651293.232 6  24487008.340          43.750
   1043247.340 7  20565448.871          50.250
    218869.803 7  20884417.077          48.000
    788743.410 7  21975074.009          49.000
 96  2  5 16 56  8.5999999  0  7G 1G 6G29G20G25G22G14
    536287.249 7  23009192.605          48.000
    644599.772 7  23396068.374          47.000
     35141.633 7  23256688.114          47.750
    651549.716 6  24487087.185          43.750
   1043242.656 7  20565478.063          50.250
    218534.421 7  20884383.309          48.000
    788639.652 7  21975084.313          49.000
 96  2  5 16 56  8.6999999  0  7G 1G 6G29G20G25G22G14
    536498.625 7  23009263.008          48.000
    644436.843 7  23396067.374          47.000
     34728.237 7  23256639.464          47.750
    651806.194 6  24487166.031          43.750
   1043237.965 7  20565507.256          50.250
    218199.027 7  20884349.398          48.000
    788535.891 7  21975094.618          49.000
 96  2  5 16 56  8.7999999  0  7G 1G 6G29G20G25G22G14
    536710.024 7  23009333.259          48.000
    644273.951 7  23396066.366          47.000
     34314.854 7  23256590.806          47.750
    652062.712 6  24487245.010          43.750
   1043233.310 7  20565536.297          50.250
    217863.667 7  20884315.765          48.000
    788432.167 7  21975104.913          49.000
 96  2  5 16 56  8.8999999  0  7G 1G 6G29G20G25G22G14
    536921.393 7  23009403.662          48.000
    644111.022 7  23396065.652          47.000
     33901.458 7  23256542.156          47.750
    652319.201 6  24487323.856          43.750
   1043228.625 7  20565565.489          50.250
    217528.286 7  20884281.997          48.000
    788328.412 7  21975115.361          49.000
 96  2  5 16 56  8.9999999  0  7G 1G 6G29G20G25G22G14
    537133.260 7  23009369.268          48.000
    643948.604 7  23395959.998          47.000
     33488.539 7  23256389.139          47.750
    652576.167 6  24487298.190          43.750
   1043224.435 7  20565490.170          50.250
    217193.400 7  20884143.718          48.000
    788225.159 7  21975021.011          49.000
 96  2  5 16 56  9.0999999  0  7G 1G 6G29G20G25G22G14
    537344.610 7  23009439.528          48.000
    643785.670 7  23395959.141          47.250
     33075.118 7  23256340.346          47.750
    652832.635 6  24487377.035          43.750
   1043219.718 7  20565519.363          50.500
    216857.994 7  20884109.950          48.000
    788121.398 7  21975031.315          48.750
 96  2  5 16 56  9.1999999  0  7G 1G 6G29G20G25G22G14
    537555.940 7  23009509.931          48.000
    643622.743 7  23395958.284          47.250
     32661.670 7  23256291.840          47.750
    653089.086 6  24487455.881          43.750
   1043215.010 7  20565548.555          50.500
    216522.582 7  20884076.182          48.000
    788017.624 7  21975041.620          48.750
 96  2  5 16 56  9.2999999  0  7G 1G 6G29G20G25G22G14
    537767.276 7  23009580.182          48.000
    643459.812 7  23395957.276          47.250
     32248.248 7  23256243.038          47.750
    653345.542 6  24487534.717          43.750
   1043210.302 7  20565577.596          50.500
    216187.183 7  20884042.405          48.000
    787913.859 7  21975051.915          48.750
 96  2  5 16 56  9.3999999  0  7G 1G 6G29G20G25G22G14
    537978.613 7  23009650.299          48.000
    643296.874 7  23395956.276          47.250
     31834.800 7  23256194.675          47.750
    653601.980 6  24487613.563          43.750
   1043205.590 7  20565606.932          50.500
    215851.781 7  20884008.637          48.000
    787810.093 7  21975062.363          48.750
 96  2  5 16 56  9.4999999  0  7G 1G 6G29G20G25G22G14
    538190.019 7  23009720.702          48.000
    643134.035 7  23395955.419          47.250
     31421.435 7  23256145.883          47.750
    653858.489 6  24487692.551          43.750
   1043200.943 7  20565635.981          50.500
    215516.452 7  20883975.012          48.000
    787706.413 7  21975072.667          48.750
 96  2  5 16 56  9.5999999  0  7G 1G 6G29G20G25G22G14
    538401.402 7  23009791.105          48.000
    642971.142 7  23395954.419          47.250
     31008.034 7  23256097.233          47.750
    654114.985 6  24487771.397          43.750
   1043196.281 7  20565665.174          50.500
    215181.104 7  20883941.244          48.000
    787602.693 7  21975082.971          48.750
 96  2  5 16 56  9.6999999  0  7G 1G 6G29G20G25G22G14
    538612.776 7  23009861.364          48.000
    642808.258 7  23395953.419          47.250
     30594.624 7  23256048.870          47.750
    654371.461 6  24487850.242          43.750
   1043191.611 7  20565694.509          50.500
    214845.741 7  20883907.476          48.000
    787498.968 7  21975093.276          48.750
 96  2  5 16 56  9.7999999  0  7G 1G 6G29G20G25G22G14
    538824.137 7  23009931.616          48.000
    642645.372 7  23395952.697          47.250
     30181.220 7  23256000.212          47.750
    654627.935 6  24487929.079          43.750
   1043186.927 7  20565723.550          50.500
    214510.370 7  20883873.557          48.000
    787395.259 7  21975103.571          48.750
 96  2  5 16 56  9.8999999  0  7G 1G 6G29G20G25G22G14
    539035.521 7  23010001.875          48.000
    642482.502 7  23395951.697          47.250
     29767.809 7  23255951.419          47.750
    654884.402 6  24488007.924          43.750
   1043182.261 7  20565752.885          50.500
    214175.026 7  20883839.932          48.000
    787291.559 7  21975113.876          48.750
 96  2  5 16 56  9.9999999  0  7G 1G 6G29G20G25G22G14
    539247.385 7  23009967.938          48.000
    642320.119 7  23395846.357          47.250
     29354.909 7  23255798.858          47.750
    655141.398 6  24487982.573          43.750
   1043178.090 7  20565677.738          50.500
    213840.180 7  20883701.967          48.000
    787188.347 7  21975020.126          48.750
 96  2  5 16 56 10.0999999  0  7G 1G 6G29G20G25G22G14
    539458.743 7  23010038.198          48.250
    642157.240 7  23395845.643          47.250
     28941.481 7  23255750.066          47.750
    655397.827 6  24488061.561          43.750
   1043173.413 7  20565706.930          50.500
    213504.827 7  20883668.199          48.000
    787084.639 7  21975030.430          49.000
 96  2  5 16 56 10.1999999  0  7G 1G 6G29G20G25G22G14
    539670.113 7  23010108.601          48.250
    641994.359 7  23395844.643          47.250
     28528.058 7  23255701.416          47.750
    655654.304 6  24488140.406          43.750
   1043168.729 7  20565736.123          50.500
    213169.453 7  20883634.574          48.000
    786980.937 7  21975040.735          49.000
 96  2  5 16 56 10.2999999  0  7G 1G 6G29G20G25G22G14
    539881.465 7  23010178.709          48.250
    641831.492 7  23395843.778          47.250
     28114.640 7  23255652.758          47.750
    655910.771 6  24488219.243          43.750
   1043164.054 7  20565765.306          50.500
    212834.117 7  20883600.797          48.000
    786877.233 7  21975051.030          49.000
 96  2  5 16 56 10.3999999  0  7G 1G 6G29G20G25G22G14
    540092.823 7  23010249.112          48.250
    641668.621 7  23395842.778          47.250
     27701.212 7  23255604.395          47.750
    656167.222 6  24488298.088          43.750
   1043159.371 7  20565794.499          50.500
    212498.760 7  20883567.029          48.000
    786773.531 7  21975061.478          49.000
 96  2  5 16 56 10.4999999  0  7G 1G 6G29G20G25G22G14
    540304.220 7  23010319.372          48.250
    641505.772 7  23395841.778          47.250
     27287.809 7  23255555.602          47.750
    656423.707 6  24488376.934          43.750
   1043154.723 7  20565823.691          50.500
    212163.434 7  20883533.261          48.000
    786669.877 7  21975071.782          49.000
 96  2  5 16 56 10.5999999  0  7G 1G 6G29G20G25G22G14
    540515.611 7  23010389.775          48.250
    641342.943 7  23395841.064          47.250
     26874.409 7  23255506.953          47.750
    656680.205 6  24488456.065          43.750
   1043150.081 7  20565852.884          50.500
    211828.117 7  20883499.493          48.000
    786566.218 7  21975082.087          49.000
 96  2  5 16 56 10.6999999  0  7G 1G 6G29G20G25G22G14
    540726.991 7  23010460.035          48.250
    641180.119 7  23395840.064          47.250
     26461.022 7  23255458.303          47.750
    656936.678 6  24488534.768          43.750
   1043145.442 7  20565881.933          50.500
    211492.811 7  20883465.726          48.000
    786462.562 7  21975092.391          49.000
 96  2  5 16 56 10.7999999  0  7G 1G 6G29G20G25G22G14
    540938.395 7  23010530.286          48.250
    641017.317 7  23395839.056          47.250
     26047.638 7  23255409.931          47.750
    657193.190 6  24488613.604          43.750
   1043140.811 7  20565911.117          50.500
    211157.512 7  20883432.092          48.000
    786358.926 7  21975102.687          49.000
 96  2  5 16 56 10.8999999  0  7G 1G 6G29G20G25G22G14
    541149.810 7  23010600.546          48.250
    640854.507 7  23395838.199          47.250
     25634.261 7  23255361.139          47.750
    657449.696 6  24488692.450          43.750
   1043136.183 7  20565940.310          50.500
    210822.226 7  20883398.324          48.000
    786255.299 7  21975112.991          49.000
 96  2  5 16 56 11.0000000  0  7G 1G 6G29G20G25G22G14
    541361.731 7  23010566.321          48.250
    640692.230 7  23395732.714          47.250
     25221.407 7  23255208.004          47.750
    657706.718 6  24488666.810          43.750
   1043132.096 7  20565865.160          50.500
    210487.469 7  20883260.071          48.000
    786152.202 7  21975018.953          49.000
 96  2  5 16 56 11.1000000  0  7G 1G 6G29G20G25G22G14
    541573.110 7  23010636.724          48.250
    640529.401 7  23395731.857          47.000
     24807.988 7  23255159.498          47.500
    657963.179 6  24488745.942          43.750
   1043127.427 7  20565894.353          50.500
    210152.155 7  20883226.446          48.000
    786048.543 7  21975029.258          49.000
 96  2  5 16 56 11.2000000  0  7G 1G 6G29G20G25G22G14
    541784.478 7  23010706.984          48.250
    640366.566 7  23395730.857          47.000
     24394.573 7  23255110.848          47.500
    658219.647 6  24488824.644          43.750
   1043122.774 7  20565923.402          50.500
    209816.830 7  20883192.678          48.000
    785944.891 7  21975039.562          49.000
 96  2  5 16 56 11.3000000  0  7G 1G 6G29G20G25G22G14
    541995.844 7  23010777.235          48.250
    640203.745 7  23395730.135          47.000
     23981.145 7  23255062.190          47.500
    658476.107 6  24488903.481          43.750
   1043118.110 7  20565952.586          50.500
    209481.518 7  20883158.902          48.000
    785841.232 7  21975050.001          49.000
 96  2  5 16 56 11.4000000  0  7G 1G 6G29G20G25G22G14
    542207.188 7  23010847.495          48.250
    640040.910 7  23395729.135          47.000
     23567.703 7  23255013.540          47.500
    658732.550 6  24488982.326          43.750
   1043113.441 7  20565981.778          50.500
    209146.188 7  20883124.990          48.000
    785737.582 7  21975060.305          49.000
 96  2  5 16 56 11.5000000  0  7G 1G 6G29G20G25G22G14
    542418.598 7  23010917.898          48.250
    639878.115 7  23395728.135          47.000
     23154.314 7  23254965.034          47.500
    658989.048 6  24489061.172          43.750
   1043108.820 7  20566010.971          50.500
    208810.906 7  20883091.366          48.000
    785633.969 7  21975070.753          49.000
 96  2  5 16 56 11.6000000  0  7G 1G 6G29G20G25G22G14
    542629.997 7  23010988.157          48.250
    639715.322 7  23395727.278          47.000
     22740.921 7  23254916.384          47.500
    659245.527 6  24489140.303          43.750
   1043104.179 7  20566040.163          50.500
    208475.623 7  20883057.598          48.000
    785530.362 7  21975081.057          49.000
 96  2  5 16 56 11.7000000  0  7G 1G 6G29G20G25G22G14
    542841.433 7  23011058.560          48.250
    639552.576 7  23395726.278          47.000
     22327.563 7  23254867.735          47.500
    659502.047 6  24489219.148          43.750
   1043099.610 7  20566069.499          50.500
    208140.394 7  20883023.973          48.000
    785426.790 7  21975091.361          49.000
 96  2  5 16 56 11.8000000  0  7G 1G 6G29G20G25G22G14
    543052.818 7  23011128.669          48.250
    639389.793 7  23395725.556          47.000
     21914.165 7  23254819.220          47.500
    659758.537 6  24489297.985          43.750
   1043094.974 7  20566098.683          50.500
    207805.122 7  20882990.196          48.000
    785323.188 7  21975101.800          49.000
 96  2  5 16 56 11.9000000  0  7G 1G 6G29G20G25G22G14
    543264.231 7  23011199.071          48.250
    639227.023 7  23395724.556          47.000
     21500.776 7  23254770.570          47.500
    660015.016 6  24489376.831          43.750
   1043090.356 7  20566127.875          50.500
    207469.851 7  20882956.571          48.000
    785219.605 7  21975112.105          49.000
 96  2  5 16 56 12.0000000  0  7G 1G 6G29G20G25G22G14
    543476.128 7  23011165.291          48.250
    639064.745 7  23395619.659          47.000
     21087.874 7  23254617.881          47.500
    660272.005 6  24489351.493          43.750
   1043086.229 7  20566052.885          50.500
    207135.082 7  20882818.763          48.000
    785116.507 7  21975018.369          49.000
 96  2  5 16 56 12.1000000  0  7G 1G 6G29G20G25G22G14
    543687.521 7  23011235.551          48.500
    638901.963 7  23395618.659          47.250
     20674.457 7  23254569.374          47.500
    660528.479 6  24489430.338          43.750
   1043081.595 7  20566082.077          50.500
    206799.811 7  20882784.852          48.250
    785012.917 7  21975028.673          49.250
 96  2  5 16 56 12.2000000  0  7G 1G 6G29G20G25G22G14
    543898.893 7  23011305.668          48.500
    638739.186 7  23395617.659          47.250
     20261.039 7  23254520.725          47.500
    660784.919 6  24489509.470          43.750
   1043076.947 7  20566111.270          50.500
    206464.535 7  20882751.084          48.250
    784909.319 7  21975039.121          49.250
 96  2  5 16 56 12.3000000  0  7G 1G 6G29G20G25G22G14
    544110.270 7  23011376.062          48.500
    638576.403 7  23395616.794          47.250
     19847.618 7  23254472.067          47.500
    661041.397 6  24489588.306          43.750
   1043072.307 7  20566140.453          50.500
    206129.259 7  20882717.308          48.250
    784805.719 7  21975049.416          49.250
 96  2  5 16 56 12.4000000  0  7G 1G 6G29G20G25G22G14
    544321.691 7  23011446.322          48.500
    638413.667 7  23395615.794          47.250
     19434.243 7  23254423.417          47.500
    661297.884 6  24489667.152          43.750
   1043067.716 7  20566169.646          50.500
    205794.033 7  20882683.683          48.250
    784702.165 7  21975059.864          49.250
 96  2  5 16 56 12.5000000  0  7G 1G 6G29G20G25G22G14
    544533.117 7  23011516.725          48.500
    638250.953 7  23395615.080          47.250
     19020.869 7  23254374.911          47.500
    661554.391 6  24489745.997          43.750
   1043063.125 7  20566198.981          50.500
    205458.806 7  20882649.915          48.250
    784598.625 7  21975070.168          49.250
 96  2  5 16 56 12.6000000  0  7G 1G 6G29G20G25G22G14
    544744.527 7  23011587.128          48.500
    638088.227 7  23395614.080          47.250
     18607.482 7  23254326.261          47.500
    661810.907 6  24489824.843          43.750
   1043058.528 7  20566228.031          50.500
    205123.579 7  20882616.147          48.250
    784495.085 7  21975080.473          49.250
 96  2  5 16 56 12.7000000  0  7G 1G 6G29G20G25G22G14
    544955.939 7  23011657.245          48.500
    637925.492 7  23395613.223          47.250
     18194.094 7  23254277.612          47.500
    662067.409 6  24489903.831          43.750
   1043053.921 7  20566257.223          50.500
    204788.354 7  20882582.522          48.250
    784391.540 7  21975090.920          49.250
 96  2  5 16 56 12.8000000  0  7G 1G 6G29G20G25G22G14
    545167.358 7  23011727.639          48.500
    637762.762 7  23395612.215          47.250
     17780.713 7  23254229.096          47.500
    662323.879 6  24489982.668          43.750
   1043049.322 7  20566286.407          50.500
    204453.129 7  20882548.745          48.250
    784288.005 7  21975101.216          49.250
 96  2  5 16 56 12.9000000  0  7G 1G 6G29G20G25G22G14
    545378.772 7  23011797.899          48.500
    637600.031 7  23395611.501          47.250
     17367.329 7  23254180.447          47.500
    662580.369 6  24490061.513          43.750
   1043044.722 7  20566315.600          50.500
    204117.897 7  20882514.977          48.250
    784184.467 7  21975111.520          49.250
 96  2  5 16 56 13.0000000  0  7G 1G 6G29G20G25G22G14
    545590.686 7  23011763.656          48.500
    637437.814 7  23395505.999          47.250
     16954.431 7  23254027.295          47.500
    662837.353 6  24490035.856          43.750
   1043040.640 7  20566240.433          50.500
    203783.183 7  20882376.707          48.250
    784081.438 7  21975017.322          49.250
 96  2  5 16 56 13.1000000  0  7G 1G 6G29G20G25G22G14
    545802.103 7  23011833.773          48.000
    637275.123 7  23395505.142          47.250
     16541.055 7  23253978.789          47.500
    663093.854 6  24490114.701          43.750
   1043036.043 7  20566269.625          50.500
    203447.961 7  20882342.939          48.000
    783977.909 7  21975027.769          49.000
 96  2  5 16 56 13.2000000  0  7G 1G 6G29G20G25G22G14
    546013.521 7  23011904.176          48.000
    637112.391 7  23395504.142          47.250
     16127.654 7  23253930.139          47.500
    663350.329 6  24490193.690          43.750
   1043031.439 7  20566298.675          50.500
    203112.751 7  20882309.171          48.000
    783874.380 7  21975038.217          49.000
 96  2  5 16 56 13.3000000  0  7G 1G 6G29G20G25G22G14
    546224.914 7  23011974.570          48.000
    636949.665 7  23395503.133          47.250
     15714.240 7  23253881.481          47.500
    663606.794 6  24490272.527          43.750
   1043026.828 7  20566327.858          50.500
    202777.515 7  20882275.394          48.000
    783770.847 7  21975048.512          49.000
 96  2  5 16 56 13.4000000  0  7G 1G 6G29G20G25G22G14
    546436.296 7  23012044.830          48.000
    636786.939 7  23395502.276          47.250
     15300.822 7  23253832.974          47.500
    663863.245 6  24490351.372          43.750
   1043022.207 7  20566357.051          50.500
    202442.280 7  20882241.770          48.000
    783667.310 7  21975058.817          49.000
 96  2  5 16 56 13.5000000  0  7G 1G 6G29G20G25G22G14
    546647.706 7  23012115.233          48.000
    636624.241 7  23395501.420          47.250
     14887.433 7  23253784.325          47.500
    664119.742 6  24490430.217          43.750
   1043017.616 7  20566386.243          50.500
    202107.081 7  20882208.002          48.000
    783563.807 7  21975069.121          49.000
 96  2  5 16 56 13.6000000  0  7G 1G 6G29G20G25G22G14
    546859.146 7  23012185.350          48.000
    636461.561 7  23395500.563          47.250
     14474.060 7  23253735.675          47.500
    664376.255 6  24490509.349          43.750
   1043013.046 7  20566415.436          50.500
    201771.898 7  20882174.377          48.000
    783460.324 7  21975079.569          49.000
 96  2  5 16 56 13.7000000  0  7G 1G 6G29G20G25G22G14
    547070.574 7  23012255.610          48.000
    636298.892 7  23395499.563          47.250
     14060.688 7  23253687.312          47.500
    664632.761 6  24490588.194          43.750
   1043008.475 7  20566444.628          50.500
    201436.732 7  20882140.609          48.000
    783356.852 7  21975090.016          49.000
 96  2  5 16 56 13.8000000  0  7G 1G 6G29G20G25G22G14
    547282.050 7  23012326.004          48.000
    636136.267 7  23395498.697          47.250
     13647.346 7  23253638.511          47.500
    664889.284 6  24490666.888          43.750
   1043003.958 7  20566473.955          50.500
    201101.593 7  20882106.975          48.000
    783253.406 7  21975100.312          49.000
 96  2  5 16 56 13.9000000  0  7G 1G 6G29G20G25G22G14
    547493.505 7  23012396.264          48.000
    635973.629 7  23395497.841          47.250
     13233.995 7  23253590.004          47.500
    665145.840 6  24490745.733          43.750
   1042999.420 7  20566503.148          50.500
    200766.442 7  20882073.064          48.000
    783149.964 7  21975110.759          49.000
 96  2  5 16 56 14.0000000  0  7G 1G 6G29G20G25G22G14
    547705.439 7  23012362.618          48.000
    635811.461 7  23395392.935          47.250
     12821.129 7  23253437.306          47.500
    665402.832 6  24490720.530          43.750
   1042995.353 7  20566428.148          50.500
    200431.781 7  20881935.247          48.000
    783046.998 7  21975017.015          49.000
 96  2  5 16 56 14.1000000  0  7G 1G 6G29G20G25G22G14
    547916.853 7  23012432.878          47.750
    635648.785 7  23395391.935          47.000
     12407.721 7  23253388.657          47.250
    665659.299 6  24490799.662          43.750
   1042990.759 7  20566457.484          50.500
    200096.594 7  20881901.623          48.000
    782943.501 7  21975027.319          49.000
 96  2  5 16 56 14.2000000  0  7G 1G 6G29G20G25G22G14
    548128.262 7  23012503.138          47.750
    635486.111 7  23395391.078          47.000
     11994.318 7  23253340.007          47.250
    665915.772 6  24490878.507          43.750
   1042986.171 7  20566486.677          50.500
    199761.405 7  20881867.712          48.000
    782840.023 7  21975037.767          49.000
 96  2  5 16 56 14.3000000  0  7G 1G 6G29G20G25G22G14
    548339.667 7  23012573.389          47.750
    635323.424 7  23395390.356          47.000
     11580.913 7  23253291.635          47.250
    666172.240 6  24490957.201          43.750
   1042981.579 7  20566515.860          50.500
    199426.204 7  20881834.078          48.000
    782736.538 7  21975048.062          49.000
 96  2  5 16 56 14.4000000  0  7G 1G 6G29G20G25G22G14
    548551.071 7  23012643.649          47.750
    635160.752 7  23395389.356          47.000
     11167.505 7  23253242.842          47.250
    666428.729 6  24491036.046          43.750
   1042976.996 7  20566545.053          50.500
    199091.038 7  20881800.310          48.000
    782633.065 7  21975058.367          49.000
 96  2  5 16 56 14.5000000  0  7G 1G 6G29G20G25G22G14
    548762.537 7  23012714.052          47.750
    634998.143 7  23395388.499          47.000
     10754.155 7  23253194.193          47.250
    666685.248 6  24491114.891          43.750
   1042972.450 7  20566574.102          50.500
    198755.897 7  20881766.685          48.000
    782529.645 7  21975068.814          49.000
 96  2  5 16 56 14.6000000  0  7G 1G 6G29G20G25G22G14
    548973.994 7  23012784.169          47.750
    634835.530 7  23395387.499          47.000
     10340.796 7  23253145.830          47.250
    666941.770 6  24491194.023          43.750
   1042967.923 7  20566603.295          50.500
    198420.777 7  20881732.917          48.000
    782426.229 7  21975079.261          49.000
 96  2  5 16 56 14.7000000  0  7G 1G 6G29G20G25G22G14
    549185.470 7  23012854.572          47.750
    634672.926 7  23395386.786          47.000
      9927.453 7  23253097.180          47.250
    667198.289 6  24491272.868          43.750
   1042963.402 7  20566632.487          50.500
    198085.668 7  20881699.292          48.000
    782322.833 7  21975089.566          49.000
 96  2  5 16 56 14.8000000  0  7G 1G 6G29G20G25G22G14
    549396.945 7  23012924.966          47.750
    634510.331 7  23395385.777          47.000
      9514.118 7  23253048.522          47.250
    667454.831 6  24491351.705          43.750
   1042958.889 7  20566661.671          50.500
    197750.563 7  20881665.516          48.000
    782219.433 7  21975100.005          49.000
 96  2  5 16 56 14.9000000  0  7G 1G 6G29G20G25G22G14
    549608.402 7  23012995.226          47.750
    634347.739 7  23395384.920          47.000
      9100.761 7  23253000.015          47.250
    667711.357 6  24491430.550          43.750
   1042954.363 7  20566691.007          50.500
    197415.448 7  20881631.748          48.000
    782116.037 7  21975110.309          49.000
 96  2  5 16 56 15.0000000  0  7G 1G 6G29G20G25G22G14
    549820.360 7  23012961.105          47.750
    634185.618 7  23395279.540          47.000
      8687.897 7  23252846.842          47.250
    667968.364 6  24491404.872          43.750
   1042950.321 7  20566615.676          50.500
    197080.827 7  20881493.743          48.000
    782013.135 7  21975016.376          49.000
 96  2  5 16 56 15.1000000  0  7G 1G 6G29G20G25G22G14
    550031.786 7  23013031.508          48.000
    634023.002 7  23395278.683          47.250
      8274.515 7  23252798.336          47.500
    668224.845 6  24491484.004          43.750
   1042945.774 7  20566644.868          50.500
    196745.696 7  20881459.975          48.250
    781909.710 7  21975026.680          49.000
 96  2  5 16 56 15.2000000  0  7G 1G 6G29G20G25G22G14
    550243.239 7  23013101.625          48.000
    633860.414 7  23395277.826          47.250
      7861.151 7  23252749.830          47.500
    668481.367 6  24491562.849          43.750
   1042941.236 7  20566674.061          50.500
    196410.573 7  20881426.207          48.250
    781806.313 7  21975037.128          49.000
 96  2  5 16 56 15.3000000  0  7G 1G 6G29G20G25G22G14
    550454.705 7  23013172.019          48.000
    633697.841 7  23395276.961          47.250
      7447.798 7  23252701.171          47.500
    668737.892 6  24491641.686          43.750
   1042936.729 7  20566703.387          50.500
    196075.485 7  20881392.573          48.250
    781702.944 7  21975047.567          49.000
 96  2  5 16 56 15.4000000  0  7G 1G 6G29G20G25G22G14
    550666.148 7  23013242.279          48.000
    633535.234 7  23395276.247          47.250
      7034.431 7  23252652.522          47.500
    668994.397 6  24491720.531          43.750
   1042932.184 7  20566732.580          50.500
    195740.368 7  20881358.805          48.250
    781599.548 7  21975057.871          49.000
 96  2  5 16 56 15.5000000  0  7G 1G 6G29G20G25G22G14
    550877.625 7  23013312.539          48.000
    633372.679 7  23395275.247          47.250
      6621.083 7  23252604.015          47.500
    669250.932 6  24491799.377          43.750
   1042927.681 7  20566761.772          50.500
    195405.296 7  20881325.180          48.250
    781496.191 7  21975068.318          49.000
 96  2  5 16 56 15.6000000  0  7G 1G 6G29G20G25G22G14
    551089.083 7  23013382.942          48.000
    633210.104 7  23395274.390          47.250
      6207.724 7  23252555.366          47.500
    669507.441 6  24491878.222          43.750
   1042923.168 7  20566790.965          50.500
    195070.207 7  20881291.412          48.250
    781392.830 7  21975078.766          49.000
 96  2  5 16 56 15.7000000  0  7G 1G 6G29G20G25G22G14
    551300.546 7  23013453.345          48.000
    633047.536 7  23395273.677          47.250
      5794.360 7  23252506.716          47.500
    669763.956 6  24491957.211          43.750
   1042918.651 7  20566820.157          50.500
    194735.115 7  20881257.644          48.250
    781289.452 7  21975089.070          49.000
 96  2  5 16 56 15.8000000  0  7G 1G 6G29G20G25G22G14
    551512.021 7  23013523.453          48.000
    632884.976 7  23395272.668          47.250
      5381.015 7  23252458.201          47.500
    670020.487 6  24492036.047          43.750
   1042914.137 7  20566849.341          50.500
    194400.040 7  20881224.011          48.250
    781186.109 7  21975099.652          49.000
 96  2  5 16 56 15.9000000  0  7G 1G 6G29G20G25G22G14
    551723.470 7  23013593.856          48.000
    632722.414 7  23395271.811          47.250
      4967.648 7  23252409.552          47.500
    670276.975 6  24492114.893          43.750
   1042909.627 7  20566878.534          50.500
    194064.949 7  20881190.243          48.250
    781082.743 7  21975109.813          49.000
 96  2  5 16 56 16.0000000  0  7G 1G 6G29G20G25G22G14
    551935.453 7  23013559.989          48.000
    632560.380 7  23395166.684          47.250
      4554.805 7  23252256.775          47.500
    670534.019 6  24492089.611          43.750
   1042905.630 7  20566803.599          50.500
    193730.389 7  20881052.348          48.250
    780979.919 7  21975016.133          49.000
 96  2  5 16 56 16.1000000  0  7G 1G 6G29G20G25G22G14
    552146.903 7  23013630.249          48.000
    632397.792 7  23395165.970          47.000
      4141.430 7  23252208.269          47.250
    670790.501 6  24492168.456          43.750
   1042901.100 7  20566832.935          50.250
    193395.308 7  20881018.723          48.250
    780876.554 7  21975026.581          49.000
 96  2  5 16 56 16.2000000  0  7G 1G 6G29G20G25G22G14
    552358.337 7  23013700.652          48.000
    632235.221 7  23395165.113          47.000
      3728.035 7  23252159.619          47.250
    671046.975 6  24492247.445          43.750
   1042896.564 7  20566861.984          50.250
    193060.200 7  20880985.098          48.250
    780773.180 7  21975036.885          49.000
 96  2  5 16 56 16.3000000  0  7G 1G 6G29G20G25G22G14
    552569.777 7  23013770.760          48.000
    632072.650 7  23395164.105          47.000
      3314.667 7  23252111.104          47.250
    671303.476 6  24492326.281          43.750
   1042892.028 7  20566891.168          50.250
    192725.108 7  20880951.464          48.250
    780669.823 7  21975047.324          49.000
 96  2  5 16 56 16.4000000  0  7G 1G 6G29G20G25G22G14
    552781.210 7  23013841.163          48.000
    631910.081 7  23395163.391          47.000
      2901.271 7  23252062.454          47.250
    671559.970 6  24492405.127          43.750
   1042887.507 7  20566920.360          50.250
    192390.020 7  20880917.696          48.250
    780566.472 7  21975057.771          49.000
 96  2  5 16 56 16.5000000  0  7G 1G 6G29G20G25G22G14
    552992.687 7  23013911.422          48.000
    631747.550 7  23395162.391          47.000
      2487.910 7  23252013.805          47.250
    671816.465 6  24492483.972          43.750
   1042882.997 7  20566949.553          50.250
    192054.954 7  20880884.072          48.250
    780463.147 7  21975068.076          49.000
 96  2  5 16 56 16.6000000  0  7G 1G 6G29G20G25G22G14
    553204.159 7  23013981.825          48.000
    631585.027 7  23395161.534          47.000
      2074.567 7  23251965.155          47.250
    672072.989 6  24492563.104          43.750
   1042878.517 7  20566978.888          50.250
    191719.919 7  20880850.447          48.250
    780359.851 7  21975078.523          49.000
 96  2  5 16 56 16.7000000  0  7G 1G 6G29G20G25G22G14
    553415.697 7  23014052.085          48.000
    631422.572 7  23395160.535          47.000
      1661.271 7  23251916.649          47.250
    672329.566 6  24492641.949          43.750
   1042874.084 7  20567008.081          50.250
    191384.930 7  20880816.679          48.250
    780256.584 7  21975088.828          49.000
 96  2  5 16 56 16.8000000  0  7G 1G 6G29G20G25G22G14
    553627.180 7  23014122.193          48.000
    631260.070 7  23395159.812          47.000
      1247.931 7  23251867.991          47.250
    672586.109 6  24492720.643          43.750
   1042869.617 7  20567037.408          50.250
    191049.911 7  20880783.045          48.250
    780153.297 7  21975099.266          49.000
 96  2  5 16 56 16.9000000  0  7G 1G 6G29G20G25G22G14
    553838.662 7  23014192.596          48.000
    631097.557 7  23395158.955          47.000
       834.578 7  23251819.627          47.250
    672842.621 6  24492799.631          43.750
   1042865.114 7  20567066.457          50.250
    190714.868 7  20880749.277          48.250
    780050.004 7  21975109.857          49.000
 96  2  5 16 56 17.0000000  0  7G 1G 6G29G20G25G22G14
    554050.630 7  23014158.650          48.000
    630935.563 7  23395053.750          47.000
       421.723 7  23251666.629          47.250
    673099.639 6  24492774.128          43.750
   1042861.141 7  20566991.444          50.250
    190380.347 7  20880611.303          48.250
    779947.213 7  21975015.956          49.000
 96  2  5 16 56 17.1000000  0  7G 1G 6G29G20G25G22G14
    554262.112 7  23014229.053          47.750
    630773.060 7  23395053.036          47.000
         8.389 7  23251617.980          47.500
    673356.163 7  24492853.259          44.000
   1042856.661 7  20567020.636          50.500
    190045.318 7  20880577.679          48.250
    779843.929 7  21975026.403          49.000
 96  2  5 16 56 17.2000000  0  7G 1G 6G29G20G25G22G14
    554473.575 7  23014299.313          47.750
    630610.553 7  23395052.179          47.000
      -404.973 7  23251569.616          47.500
    673612.667 7  24492932.105          44.000
   1042852.162 7  20567049.972          50.500
    189710.286 7  20880543.911          48.250
    779740.639 7  21975036.850          49.000
 96  2  5 16 56 17.3000000  0  7G 1G 6G29G20G25G22G14
    554685.046 7  23014369.564          47.750
    630448.063 7  23395051.170          47.000
      -818.331 7  23251520.958          47.500
    673869.190 7  24493010.941          44.000
   1042847.680 7  20567079.012          50.500
    189375.265 7  20880510.420          48.250
    779637.358 7  21975047.289          49.000
 96  2  5 16 56 17.4000000  0  7G 1G 6G29G20G25G22G14
    554896.524 7  23014439.824          47.750
    630285.568 7  23395050.457          47.000
     -1231.679 7  23251472.452          47.500
    674125.728 7  24493089.787          44.000
   1042843.203 7  20567108.205          50.500
    189040.247 7  20880476.652          48.250
    779534.084 7  21975057.737          49.000
 96  2  5 16 56 17.5000000  0  7G 1G 6G29G20G25G22G14
    555108.038 7  23014510.227          47.750
    630123.120 7  23395049.600          47.000
     -1645.009 7  23251423.802          47.500
    674382.242 7  24493168.489          44.000
   1042838.745 7  20567137.541          50.500
    188705.253 7  20880443.027          48.250
    779430.848 7  21975068.041          49.000
 96  2  5 16 56 17.6000000  0  7G 1G 6G29G20G25G22G14
    555319.555 7  23014580.487          47.750
    629960.679 7  23395048.600          47.000
     -2058.326 7  23251375.153          47.500
    674638.812 7  24493247.334          44.000
   1042834.308 7  20567166.733          50.500
    188370.281 7  20880409.402          48.250
    779327.609 7  21975078.488          49.000
 96  2  5 16 56 17.7000000  0  7G 1G 6G29G20G25G22G14
    555531.059 7  23014650.890          47.750
    629798.237 7  23395047.886          47.000
     -2471.645 7  23251326.646          47.500
    674895.359 7  24493326.466          44.000
   1042829.870 7  20567195.926          50.500
    188035.322 7  20880375.635          48.250
    779224.392 7  21975088.936          49.000
 96  2  5 16 56 17.8000000  0  7G 1G 6G29G20G25G22G14
    555742.583 7  23014721.141          47.750
    629635.805 7  23395047.021          47.000
     -2884.963 7  23251277.988          47.500
    675151.920 7  24493405.303          44.000
   1042825.440 7  20567225.252          50.500
    187700.353 7  20880341.858          48.250
    779121.192 7  21975099.375          49.000
 96  2  5 16 56 17.9000000  0  7G 1G 6G29G20G25G22G14
    555954.095 7  23014791.544          47.750
    629473.361 7  23395046.021          47.000
     -3298.279 7  23251229.481          47.500
    675408.475 7  24493484.148          44.000
   1042820.997 7  20567254.302          50.500
    187365.378 7  20880308.233          48.250
    779017.970 7  21975109.822          49.000
 96  2  5 16 56 18.0000000  0  7G 1G 6G29G20G25G22G14
    556166.120 7  23014757.729          47.750
    629311.446 7  23394941.232          47.000
     -3711.088 7  23251076.757          47.500
    675665.521 7  24493459.062          44.000
   1042817.072 7  20567179.562          50.500
    187030.919 7  20880170.390          48.250
    778915.279 7  21975016.195          49.000
 96  2  5 16 56 18.1000000  0  7G 1G 6G29G20G25G22G14
    556377.661 7  23014827.989          47.750
    629149.041 7  23394940.375          47.250
     -4124.382 7  23251028.107          47.500
    675922.105 7  24493537.907          44.000
   1042812.664 7  20567208.755          50.500
    186695.991 7  20880136.765          48.250
    778812.090 7  21975026.642          49.250
 96  2  5 16 56 18.2000000  0  7G 1G 6G29G20G25G22G14
    556589.134 7  23014898.249          47.750
    628986.586 7  23394939.376          47.250
     -4537.740 7  23250979.601          47.500
    676178.601 7  24493616.752          44.000
   1042808.195 7  20567237.947          50.500
    186361.000 7  20880103.140          48.250
    778708.851 7  21975037.089          49.250
 96  2  5 16 56 18.3000000  0  7G 1G 6G29G20G25G22G14
    556800.616 7  23014968.643          47.750
    628824.144 7  23394938.653          47.250
     -4951.078 7  23250930.943          47.500
    676435.108 7  24493695.875          44.000
   1042803.728 7  20567267.131          50.500
    186026.023 7  20880069.507          48.250
    778605.628 7  21975047.528          49.250
 96  2  5 16 56 18.4000000  0  7G 1G 6G29G20G25G22G14
    557012.107 7  23015038.903          47.750
    628661.699 7  23394937.796          47.250
     -5364.430 7  23250882.580          47.500
    676691.637 7  24493774.578          44.000
   1042799.272 7  20567296.324          50.500
    185691.052 7  20880035.882          48.250
    778502.409 7  21975057.976          49.250
 96  2  5 16 56 18.5000000  0  7G 1G 6G29G20G25G22G14
    557223.627 7  23015109.306          47.750
    628499.296 7  23394936.796          47.250
     -5777.752 7  23250833.787          47.500
    676948.192 7  24493853.566          44.000
   1042794.849 7  20567325.659          50.500
    185356.106 7  20880002.114          48.250
    778399.224 7  21975068.280          49.250
 96  2  5 16 56 18.6000000  0  7G 1G 6G29G20G25G22G14
    557435.152 7  23015179.566          47.750
    628336.909 7  23394936.083          47.250
     -6191.067 7  23250785.280          47.500
    677204.726 7  24493932.268          44.000
   1042790.435 7  20567354.852          50.500
    185021.178 7  20879968.346          48.250
    778296.051 7  21975078.727          49.250
 96  2  5 16 56 18.7000000  0  7G 1G 6G29G20G25G22G14
    557646.689 7  23015249.826          47.750
    628174.526 7  23394935.226          47.250
     -6604.362 7  23250736.774          47.500
    677461.300 7  24494011.400          44.000
   1042786.027 7  20567384.044          50.500
    184686.253 7  20879934.721          48.250
    778192.905 7  21975089.175          49.250
 96  2  5 16 56 18.8000000  0  7G 1G 6G29G20G25G22G14
    557858.250 7  23015320.077          47.750
    628012.177 7  23394934.217          47.250
     -7017.643 7  23250688.116          47.500
    677717.900 7  24494090.237          44.000
   1042781.645 7  20567413.371          50.500
    184351.369 7  20879900.945          48.250
    778089.766 7  21975099.614          49.250
 96  2  5 16 56 18.9000000  0  7G 1G 6G29G20G25G22G14
    558069.772 7  23015390.480          47.750
    627849.777 7  23394933.504          47.250
     -7430.957 7  23250639.609          47.500
    677974.432 7  24494169.082          44.000
   1042777.231 7  20567442.707          50.500
    184016.442 7  20879867.463          48.250
    777986.613 7  21975110.061          49.250
 96  2  5 16 56 19.0000000  0  7G 1G 6G29G20G25G22G14
    558281.776 7  23015356.176          47.750
    627687.884 7  23394828.083          47.250
     -7843.790 7  23250486.396          47.500
    678231.481 7  24494143.364          44.000
   1042773.309 7  20567367.193          50.500
    183682.007 7  20879729.274          48.250
    777883.949 7  21975015.945          49.250
 96  2  5 16 56 19.1000000  0  7G 1G 6G29G20G25G22G14
    558493.286 7  23015426.579          48.000
    627525.495 7  23394827.369          47.250
     -8257.119 7  23250437.747          47.750
    678488.002 7  24494222.066          44.000
   1042768.874 7  20567396.385          50.500
    183347.076 7  20879695.506          48.250
    777780.781 7  21975026.392          49.250
 96  2  5 16 56 19.2000000  0  7G 1G 6G29G20G25G22G14
    558704.792 7  23015496.839          48.000
    627363.098 7  23394826.370          47.250
     -8670.450 7  23250389.240          47.750
    678744.526 7  24494301.198          44.000
   1042764.447 7  20567425.721          50.500
    183012.136 7  20879661.882          48.250
    777677.614 7  21975036.840          49.250
 96  2  5 16 56 19.3000000  0  7G 1G 6G29G20G25G22G14
    558916.316 7  23015567.233          48.000
    627200.732 7  23394825.647          47.250
     -9083.777 7  23250340.582          47.750
    679001.079 7  24494380.034          44.000
   1042760.035 7  20567454.904          50.500
    182677.225 7  20879628.105          48.250
    777574.473 7  21975047.279          49.250
 96  2  5 16 56 19.4000000  0  7G 1G 6G29G20G25G22G14
    559127.840 7  23015637.493          48.000
    627038.360 7  23394824.790          47.250
     -9497.092 7  23250292.076          47.750
    679257.610 7  24494458.880          44.000
   1042755.613 7  20567484.097          50.500
    182342.309 7  20879594.337          48.250
    777471.327 7  21975057.726          49.250
 96  2  5 16 56 19.5000000  0  7G 1G 6G29G20G25G22G14
    559339.434 7  23015707.896          48.000
    626876.065 7  23394823.790          47.250
     -9910.344 7  23250243.426          47.750
    679514.230 7  24494538.011          44.000
   1042751.272 7  20567513.289          50.500
    182007.475 7  20879560.998          48.250
    777368.267 7  21975068.174          49.250
 96  2  5 16 56 19.6000000  0  7G 1G 6G29G20G25G22G14
    559550.989 7  23015778.299          48.000
    626713.733 7  23394823.077          47.250
    -10323.634 7  23250194.777          47.750
    679770.811 7  24494616.857          44.000
   1042746.910 7  20567542.625          50.500
    181672.600 7  20879527.230          48.250
    777265.168 7  21975078.621          49.250
 96  2  5 16 56 19.7000000  0  7G 1G 6G29G20G25G22G14
    559762.532 7  23015848.416          48.000
    626551.401 7  23394822.220          47.250
    -10736.920 7  23250146.270          47.750
    680027.377 7  24494695.702          44.000
   1042742.528 7  20567571.818          50.500
    181337.728 7  20879493.605          48.250
    777162.063 7  21975089.068          49.250
 96  2  5 16 56 19.8000000  0  7G 1G 6G29G20G25G22G14
    559974.084 7  23015918.667          48.000
    626389.076 7  23394821.497          47.250
    -11150.238 7  23250097.755          47.750
    680283.950 7  24494774.396          44.000
   1042738.144 7  20567601.144          50.500
    181002.857 7  20879459.829          48.250
    777058.968 7  21975099.507          49.250
 96  2  5 16 56 19.9000000  0  7G 1G 6G29G20G25G22G14
    560185.619 7  23015989.070          48.000
    626226.752 7  23394820.641          47.250
    -11563.527 7  23250049.249          47.750
    680540.496 7  24494853.527          44.000
   1042733.764 7  20567630.337          50.500
    180667.988 7  20879426.204          48.250
    776955.878 7  21975110.098          49.250
 96  2  5 16 56 20.0000000  0  7G 1G 6G29G20G25G22G14
    560397.668 7  23015955.115          48.000
    626064.936 7  23394715.426          47.250
    -11976.335 7  23249896.242          47.750
    680797.563 7  24494828.158          44.000
   1042729.882 7  20567555.315          50.500
    180333.623 7  20879288.365          48.250
    776853.283 7  21975016.188          49.250
 96  2  5 16 56 20.1000000  0  7G 1G 6G29G20G25G22G14
    560609.195 7  23016025.518          48.000
    625902.591 7  23394714.712          47.000
    -12389.655 7  23249847.592          47.750
    681054.091 7  24494907.004          44.000
   1042725.485 7  20567584.507          50.500
    179998.734 7  20879254.740          48.500
    776750.177 7  21975026.492          49.250
 96  2  5 16 56 20.2000000  0  7G 1G 6G29G20G25G22G14
    560820.733 7  23016095.778          48.000
    625740.272 7  23394713.856          47.000
    -12802.964 7  23249799.229          47.750
    681310.665 7  24494985.849          44.000
   1042721.093 7  20567613.843          50.500
    179663.874 7  20879220.972          48.500
    776647.092 7  21975036.939          49.250
 96  2  5 16 56 20.3000000  0  7G 1G 6G29G20G25G22G14
    561032.278 7  23016166.173          48.000
    625577.956 7  23394713.133          47.000
    -13216.271 7  23249750.571          47.750
    681567.219 7  24495064.829          44.000
   1042716.715 7  20567643.027          50.500
    179329.007 7  20879187.338          48.500
    776544.019 7  21975047.378          49.250
 96  2  5 16 56 20.4000000  0  7G 1G 6G29G20G25G22G14
    561243.799 7  23016236.575          48.000
    625415.629 7  23394712.133          47.000
    -13629.594 7  23249702.064          47.750
    681823.734 7  24495143.674          44.000
   1042712.320 7  20567672.219          50.500
    178994.141 7  20879153.713          48.500
    776440.922 7  21975057.969          49.250
 96  2  5 16 56 20.5000000  0  7G 1G 6G29G20G25G22G14
    561455.370 7  23016306.835          48.000
    625253.333 7  23394711.420          47.000
    -14042.878 7  23249653.415          47.750
    682080.314 7  24495222.519          44.000
   1042707.959 7  20567701.555          50.500
    178659.297 7  20879120.088          48.500
    776337.866 7  21975068.416          49.250
 96  2  5 16 56 20.6000000  0  7G 1G 6G29G20G25G22G14
    561666.932 7  23016376.952          48.000
    625091.058 7  23394710.563          47.000
    -14456.156 7  23249604.908          47.750
    682336.903 7  24495301.651          44.000
   1042703.619 7  20567730.747          50.500
    178324.479 7  20879086.464          48.500
    776234.831 7  21975078.864          49.250
 96  2  5 16 56 20.7000000  0  7G 1G 6G29G20G25G22G14
    561878.503 7  23016447.355          48.000
    624928.797 7  23394709.849          47.000
    -14869.436 7  23249556.259          47.750
    682593.477 7  24495380.496          44.000
   1042699.269 7  20567759.940          50.500
    177989.659 7  20879052.696          48.500
    776131.795 7  21975089.311          49.250
 96  2  5 16 56 20.8000000  0  7G 1G 6G29G20G25G22G14
    562090.078 7  23016517.749          48.000
    624766.529 7  23394708.984          47.000
    -15282.724 7  23249507.601          47.750
    682850.053 7  24495459.333          44.000
   1042694.919 7  20567789.124          50.500
    177654.840 7  20879019.062          48.500
    776028.772 7  21975099.750          49.250
 96  2  5 16 56 20.9000000  0  7G 1G 6G29G20G25G22G14
    562301.677 7  23016588.009          48.000
    624604.278 7  23394707.984          47.000
    -15695.976 7  23249459.237          47.750
    683106.656 7  24495538.178          44.000
   1042690.601 7  20567818.459          50.500
    177320.045 7  20878985.437          48.500
    775925.771 7  21975110.197          49.250
 96  2  5 16 56 21.0000000  0  7G 1G 6G29G20G25G22G14
    562513.783 7  23016554.224          48.000
    624442.543 7  23394603.082          47.000
    -16108.739 7  23249306.256          47.750
    683363.779 7  24495512.979          44.000
   1042686.787 7  20567743.463          50.500
    176985.750 7  20878847.624          48.500
    775823.273 7  21975016.456          49.250
 96  2  5 16 56 21.1000000  0  7G 1G 6G29G20G25G22G14
    562725.337 7  23016624.484          47.750
    624280.276 7  23394602.225          47.250
    -16522.028 7  23249257.893          47.750
    683620.332 7  24495591.824          44.000
   1042682.423 7  20567772.799          50.500
    176650.929 7  20878813.856          48.250
    775720.251 7  21975026.904          49.000
 96  2  5 16 56 21.2000000  0  7G 1G 6G29G20G25G22G14
    562936.885 7  23016694.744          47.750
    624117.996 7  23394601.511          47.250
    -16935.336 7  23249209.243          47.750
    683876.864 7  24495670.669          44.000
   1042678.058 7  20567801.991          50.500
    176316.103 7  20878780.374          48.250
    775617.218 7  21975037.351          49.000
 96  2  5 16 56 21.3000000  0  7G 1G 6G29G20G25G22G14
    563148.425 7  23016765.138          47.750
    623955.728 7  23394600.646          47.250
    -17348.649 7  23249160.585          47.750
    684133.429 7  24495749.506          44.000
   1042673.700 7  20567831.175          50.500
    175981.278 7  20878746.741          48.250
    775514.184 7  21975047.790          49.000
 96  2  5 16 56 21.4000000  0  7G 1G 6G29G20G25G22G14
    563359.983 7  23016835.541          47.750
    623793.478 7  23394599.932          47.250
    -17761.945 7  23249112.079          47.750
    684389.971 7  24495828.351          44.000
   1042669.355 7  20567860.368          50.500
    175646.477 7  20878712.973          48.250
    775411.159 7  21975058.237          49.000
 96  2  5 16 56 21.5000000  0  7G 1G 6G29G20G25G22G14
    563571.589 7  23016905.801          47.750
    623631.267 7  23394598.932          47.250
    -18175.206 7  23249063.429          47.750
    684646.585 7  24495907.340          44.000
   1042665.042 7  20567889.703          50.500
    175311.702 7  20878679.348          48.250
    775308.191 7  21975068.685          49.000
 96  2  5 16 56 21.6000000  0  7G 1G 6G29G20G25G22G14
    563783.192 7  23016976.061          47.750
    623469.060 7  23394598.218          47.250
    -18588.459 7  23249014.923          47.750
    684903.186 7  24495986.185          44.000
   1042660.733 7  20567919.039          50.500
    174976.943 7  20878645.723          48.250
    775205.232 7  21975079.132          49.000
 96  2  5 16 56 21.7000000  0  7G 1G 6G29G20G25G22G14
    563994.789 7  23017046.320          47.750
    623306.862 7  23394597.361          47.250
    -19001.709 7  23248966.273          47.750
    685159.803 7  24496065.031          44.000
   1042656.440 7  20567948.231          50.500
    174642.197 7  20878612.098          48.250
    775102.277 7  21975089.580          49.000
 96  2  5 16 56 21.8000000  0  7G 1G 6G29G20G25G22G14
    564206.396 7  23017116.715          47.750
    623144.665 7  23394596.639          47.250
    -19414.969 7  23248917.901          47.750
    685416.394 7  24496144.154          44.000
   1042652.129 7  20567977.415          50.500
    174307.436 7  20878578.465          48.250
    774999.332 7  21975100.019          49.000
 96  2  5 16 56 21.9000000  0  7G 1G 6G29G20G25G22G14
    564417.994 7  23017187.118          47.750
    622982.463 7  23394595.782          47.250
    -19828.232 7  23248869.109          47.750
    685672.995 7  24496222.999          44.000
   1042647.829 7  20568006.751          50.500
    173972.691 7  20878544.840          48.250
    774896.371 7  21975110.609          49.000
